EW4266 Weather Reports


time (UTC)temp
C
wind
direction
speed
KPH
gust
KPH
rain 1hr
cm
rain 24hr
cm
rain mn
cm
humidity
%
barometer
mb
20260904142156 22 61 4.8 9.7 0.00 0.00 0.00 71 1011.8
20260904142025 22 5 6.4 9.7 0.00 0.00 0.00 72 1011.9
20260904141940 22 360 4.8 9.7 0.00 0.00 0.00 74 1011.9
20260904141810 22 347 4.8 9.7 0.00 0.00 0.00 72 1011.9
20260904141730 22 319 6.4 9.7 0.00 0.00 0.00 72 1011.9
20260904141533 22 329 6.4 9.7 0.00 0.00 0.00 73 1011.9
20260904141456 22 27 6.4 9.7 0.00 0.00 0.00 73 1011.9
20260904141322 22 355 4.8 9.7 0.00 0.00 0.00 73 1011.9
20260904141236 22 35 3.2 9.7 0.00 0.00 0.00 74 1011.9
20260904141141 22 44 1.6 9.7 0.00 0.00 0.00 75 1011.9
20260904141038 22 360 1.6 9.7 0.00 0.00 0.00 73 1011.8
20260904140940 22 360 6.4 9.7 0.00 0.00 0.00 75 1011.9
20260904140824 22 360 4.8 9.7 0.00 0.00 0.00 76 1011.9
20260904140747 22 360 3.2 9.7 0.00 0.00 0.00 77 1011.9
20260904140709 22 348 0.0 6.4 0.00 0.00 0.00 77 1012.0
20260904140613 22 340 1.6 6.4 0.00 0.00 0.00 75 1011.9
20260904140514 22 340 1.6 6.4 0.00 0.00 0.00 76 1011.9
20260904140346 22 348 3.2 6.4 0.00 0.00 0.00 78 1011.9
20260904140224 22 340 3.2 6.4 0.00 0.00 0.00 77 1012.0
20260904140129 22 355 3.2 4.8 0.00 0.00 0.00 77 1012.0
20260904140051 22 337 1.6 4.8 0.00 0.00 0.00 78 1012.0
20260904135900 22 355 0.0 4.8 0.00 0.00 0.00 74 1011.9
20260904135813 22 355 0.0 4.8 0.00 0.00 0.00 75 1011.9
20260904135656 22 355 1.6 4.8 0.00 0.00 0.00 77 1012.0
20260904135617 22 355 1.6 4.8 0.00 0.00 0.00 78 1012.0
20260904135449 22 355 0.0 3.2 0.00 0.00 0.00 78 1012.0
20260904135325 22 355 0.0 3.2 0.00 0.00 0.00 77 1012.0
20260904135228 21 355 0.0 3.2 0.00 0.00 0.00 78 1012.0
20260904135154 21 355 0.0 3.2 0.00 0.00 0.00 78 1012.0
20260904135115 21 355 0.0 6.4 0.00 0.00 0.00 77 1012.0
20260904135022 21 355 0.0 6.4 0.00 0.00 0.00 77 1012.0
20260904134942 21 355 0.0 6.4 0.00 0.00 0.00 77 1012.0
20260904134813 21 355 0.0 6.4 0.00 0.00 0.00 77 1012.0
20260904134728 21 355 0.0 6.4 0.00 0.00 0.00 80 1012.0
20260904134557 21 355 1.6 6.4 0.00 0.00 0.00 80 1012.0
20260904134518 21 355 1.6 6.4 0.00 0.00 0.00 79 1012.0
20260904134340 21 355 3.2 6.4 0.00 0.00 0.00 80 1012.0
20260904134240 21 355 3.2 4.8 0.00 0.00 0.00 80 1012.0
20260904134125 21 355 1.6 4.8 0.00 0.00 0.00 82 1012.0
20260904134051 21 355 1.6 4.8 0.00 0.00 0.00 81 1011.9
20260904133953 21 355 1.6 4.8 0.00 0.00 0.00 81 1011.9
20260904133858 21 345 0.0 4.8 0.00 0.00 0.00 82 1011.9
20260904133738 21 43 0.0 3.2 0.00 0.00 0.00 82 1011.9
20260904133642 21 47 0.0 3.2 0.00 0.00 0.00 81 1012.0
20260904133545 21 47 0.0 3.2 0.00 0.00 0.00 81 1011.9
20260904133429 21 47 0.0 3.2 0.00 0.00 0.00 81 1011.9
20260904133350 21 47 1.6 3.2 0.00 0.00 0.00 81 1011.9
20260904133311 21 47 1.6 3.2 0.00 0.00 0.00 82 1011.9
20260904133215 21 46 0.0 1.6 0.00 0.00 0.00 83 1011.9
20260904133137 21 44 0.0 0.0 0.00 0.00 0.00 81 1011.9
20260904133011 21 44 0.0 0.0 0.00 0.00 0.00 81 1011.9
20260904132933 21 44 0.0 0.0 0.00 0.00 0.00 81 1011.9
20260904132736 21 44 0.0 0.0 0.00 0.00 0.00 83 1011.9
20260904132659 21 44 0.0 0.0 0.00 0.00 0.00 83 1011.9
20260904132604 21 44 0.0 0.0 0.00 0.00 0.00 82 1011.9
20260904132502 21 44 0.0 0.0 0.00 0.00 0.00 83 1011.9
20260904132313 20 44 0.0 0.0 0.00 0.00 0.00 85 1011.9
20260904132227 20 47 0.0 0.0 0.00 0.00 0.00 85 1011.9
20260904132058 20 48 0.0 0.0 0.00 0.00 0.00 85 1011.9
20260904132020 20 90 0.0 0.0 0.00 0.00 0.00 84 1011.9
20260904131901 20 90 0.0 0.0 0.00 0.00 0.00 85 1011.9
20260904131711 20 90 0.0 0.0 0.00 0.00 0.00 84 1011.9
20260904131636 20 90 0.0 0.0 0.00 0.00 0.00 85 1011.9
20260904131505 20 90 0.0 0.0 0.00 0.00 0.00 85 1012.0
20260904131420 20 90 0.0 0.0 0.00 0.00 0.00 85 1012.0
20260904131230 20 90 0.0 0.0 0.00 0.00 0.00 85 1012.0
20260904131125 20 90 0.0 0.0 0.00 0.00 0.00 86 1012.0
20260904131048 20 90 0.0 0.0 0.00 0.00 0.00 86 1012.0
20260904130924 20 90 0.0 0.0 0.00 0.00 0.00 86 1012.0
20260904130840 20 90 0.0 0.0 0.00 0.00 0.00 87 1012.0
20260904130711 20 90 0.0 0.0 0.00 0.00 0.00 87 1012.0
20260904130614 20 90 0.0 0.0 0.00 0.00 0.00 88 1012.0
20260904130446 20 90 0.0 0.0 0.00 0.00 0.00 88 1012.0
20260904130339 20 90 0.0 0.0 0.00 0.00 0.00 88 1012.0
20260904130301 20 90 0.0 0.0 0.00 0.00 0.00 87 1011.9
20260904130206 20 90 0.0 0.0 0.00 0.00 0.00 87 1012.0
20260904130107 20 90 0.0 0.0 0.00 0.00 0.00 87 1012.0
20260904125917 20 90 0.0 0.0 0.00 0.00 0.00 88 1011.9
20260904125831 20 90 0.0 0.0 0.00 0.00 0.00 88 1011.9
20260904125702 19 90 0.0 0.0 0.00 0.00 0.00 88 1012.0
20260904125541 19 90 0.0 0.0 0.00 0.00 0.00 89 1011.9
20260904125426 19 90 0.0 0.0 0.00 0.00 0.00 88 1011.9
20260904125352 19 90 0.0 0.0 0.00 0.00 0.00 88 1011.9
20260904125315 19 90 0.0 0.0 0.00 0.00 0.00 89 1012.0
20260904125217 19 90 0.0 0.0 0.00 0.00 0.00 88 1012.0
20260904125136 19 90 0.0 0.0 0.00 0.00 0.00 88 1012.0
20260904124947 19 90 0.0 0.0 0.00 0.00 0.00 89 1012.0
20260904124822 19 90 0.0 0.0 0.00 0.00 0.00 89 1012.0
20260904124726 19 90 0.0 0.0 0.00 0.00 0.00 90 1012.0
20260904124647 19 90 0.0 0.0 0.00 0.00 0.00 91 1012.0
20260904124508 19 90 0.0 0.0 0.00 0.00 0.00 90 1012.0
20260904124341 19 90 0.0 0.0 0.00 0.00 0.00 90 1012.0
20260904124306 19 90 0.0 0.0 0.00 0.00 0.00 90 1012.0
20260904124222 19 90 0.0 0.0 0.00 0.00 0.00 91 1012.0
20260904124144 19 90 0.0 0.0 0.00 0.00 0.00 91 1012.0
20260904124014 18 90 0.0 0.0 0.00 0.00 0.00 90 1012.0
20260904123929 18 90 0.0 0.0 0.00 0.00 0.00 91 1012.0
20260904123759 18 90 0.0 0.0 0.00 0.00 0.00 90 1012.0
20260904123719 18 90 0.0 0.0 0.00 0.00 0.00 90 1012.0
20260904123550 18 90 0.0 0.0 0.00 0.00 0.00 91 1012.0
20260904123504 18 90 0.0 0.0 0.00 0.00 0.00 91 1012.0
20260904123344 18 90 0.0 0.0 0.00 0.00 0.00 90 1011.9
20260904123154 18 90 0.0 0.0 0.00 0.00 0.00 89 1011.9
20260904123110 18 90 0.0 0.0 0.00 0.00 0.00 90 1011.9
20260904122951 18 90 0.0 0.0 0.00 0.00 0.00 90 1012.0
20260904122917 18 90 0.0 0.0 0.00 0.00 0.00 90 1011.9
20260904122720 18 90 0.0 0.0 0.00 0.00 0.00 89 1011.9
20260904122649 18 90 0.0 0.0 0.00 0.00 0.00 90 1012.0
20260904122535 18 90 0.0 0.0 0.00 0.00 0.00 90 1012.0
20260904122436 18 90 0.0 0.0 0.00 0.00 0.00 89 1012.0
20260904122359 18 90 0.0 0.0 0.00 0.00 0.00 89 1012.0
20260904122224 18 90 0.0 0.0 0.00 0.00 0.00 89 1012.0
20260904122139 18 90 0.0 0.0 0.00 0.00 0.00 89 1012.1
20260904122045 18 90 0.0 0.0 0.00 0.00 0.00 89 1012.0
20260904121948 18 90 0.0 0.0 0.00 0.00 0.00 90 1012.1
20260904121907 18 90 0.0 0.0 0.00 0.00 0.00 90 1012.1
20260904121737 18 90 0.0 0.0 0.00 0.00 0.00 89 1012.1
20260904121630 18 90 0.0 0.0 0.00 0.00 0.00 89 1012.1
20260904121501 18 90 0.0 0.0 0.00 0.00 0.00 90 1012.0
20260904121335 18 90 0.0 0.0 0.00 0.00 0.00 90 1012.0
20260904121258 18 90 0.0 0.0 0.00 0.00 0.00 90 1012.0
20260904121218 18 90 0.0 0.0 0.00 0.00 0.00 91 1012.1
20260904121051 18 90 0.0 0.0 0.00 0.00 0.00 91 1012.1
20260904121004 18 90 0.0 0.0 0.00 0.00 0.00 91 1012.1
20260904120830 18 90 0.0 0.0 0.00 0.00 0.00 92 1012.1
20260904120724 18 90 0.0 0.0 0.00 0.00 0.00 92 1012.1
20260904120647 18 90 0.0 0.0 0.00 0.00 0.00 92 1012.1
20260904120602 18 90 0.0 0.0 0.00 0.00 0.00 93 1012.1
20260904120443 18 90 0.0 0.0 0.00 0.00 0.00 93 1012.1
20260904120358 17 90 0.0 0.0 0.00 0.00 0.00 94 1012.1
20260904120320 17 90 0.0 0.0 0.00 0.00 0.00 94 1012.1
20260904120125 17 90 0.0 0.0 0.00 0.00 0.00 95 1012.1
20260904120047 17 90 0.0 0.0 0.00 0.00 0.00 95 1012.1
20260904115934 17 90 0.0 0.0 0.00 0.00 0.00 95 1012.0
20260904115829 17 90 0.0 0.0 0.00 0.00 0.00 95 1012.1
20260904115750 17 90 0.0 0.0 0.00 0.00 0.00 96 1012.1
20260904115656 17 90 0.0 0.0 0.00 0.00 0.00 96 1012.1
20260904115557 17 90 0.0 0.0 0.00 0.00 0.00 96 1012.0
20260904115520 17 90 0.0 0.0 0.00 0.00 0.00 96 1012.1
20260904115404 17 90 0.0 0.0 0.00 0.00 0.00 96 1012.1
20260904115326 17 90 0.0 0.0 0.00 0.00 0.00 96 1012.1
20260904115130 17 355 0.0 0.0 0.00 0.00 0.00 96 1012.1
20260904115033 17 347 0.0 0.0 0.00 0.00 0.00 96 1012.0
20260904114923 17 333 0.0 0.0 0.00 0.00 0.00 96 1012.1
20260904114845 17 333 0.0 0.0 0.00 0.00 0.00 96 1012.0
20260904114808 16 333 0.0 0.0 0.00 0.00 0.00 96 1012.0
20260904114713 16 333 0.0 0.0 0.00 0.00 0.00 96 1012.0
20260904114635 16 333 0.0 0.0 0.00 0.00 0.00 96 1012.0
20260904114504 16 333 0.0 0.0 0.00 0.00 0.00 96 1012.0
20260904114419 16 333 0.0 0.0 0.00 0.00 0.00 96 1012.0
20260904114230 16 333 0.0 0.0 0.00 0.00 0.00 96 1012.1
20260904114145 16 333 0.0 0.0 0.00 0.00 0.00 96 1012.0
20260904114016 16 333 0.0 0.0 0.00 0.00 0.00 96 1012.0
20260904113936 16 333 0.0 0.0 0.00 0.00 0.00 96 1012.0
20260904113813 16 333 0.0 0.0 0.00 0.00 0.00 96 1012.0
20260904113726 16 333 0.0 0.0 0.00 0.00 0.00 96 1012.0
20260904113538 15 333 0.0 0.0 0.00 0.00 0.00 96 1011.9
20260904113432 15 333 0.0 0.0 0.00 0.00 0.00 96 1011.9
20260904113355 15 331 0.0 0.0 0.00 0.00 0.00 96 1011.9
20260904113249 15 331 0.0 0.0 0.00 0.00 0.00 96 1011.9
20260904113150 15 331 0.0 0.0 0.00 0.00 0.00 96 1011.9
20260904112958 15 331 0.0 0.0 0.00 0.00 0.00 96 1011.8
20260904112833 15 331 0.0 0.0 0.00 0.00 0.00 96 1011.8
20260904112722 15 331 0.0 0.0 0.00 0.00 0.00 95 1011.8
20260904112644 15 331 0.0 0.0 0.00 0.00 0.00 95 1011.7
20260904112516 15 331 0.0 0.0 0.00 0.00 0.00 95 1011.8
20260904112430 15 331 0.0 0.0 0.00 0.00 0.00 95 1011.8
20260904112306 14 331 0.0 0.0 0.00 0.00 0.00 95 1011.7
20260904112227 14 331 0.0 0.0 0.00 0.00 0.00 95 1011.7
20260904112031 14 331 0.0 0.0 0.00 0.00 0.00 95 1011.7
20260904111934 14 331 0.0 0.0 0.00 0.00 0.00 95 1011.8
20260904111839 14 331 0.0 0.0 0.00 0.00 0.00 95 1011.7
20260904111800 14 331 0.0 0.0 0.00 0.00 0.00 95 1011.7
20260904111722 14 331 0.0 0.0 0.00 0.00 0.00 95 1011.7
20260904111609 14 331 0.0 0.0 0.00 0.00 0.00 95 1011.7
20260904111532 14 331 0.0 0.0 0.00 0.00 0.00 95 1011.7
20260904111336 14 331 0.0 0.0 0.00 0.00 0.00 95 1011.6
20260904111238 14 331 0.0 0.0 0.00 0.00 0.00 95 1011.6
20260904111124 14 331 0.0 0.0 0.00 0.00 0.00 95 1011.7
20260904111046 14 331 0.0 0.0 0.00 0.00 0.00 95 1011.6
20260904111010 14 331 0.0 0.0 0.00 0.00 0.00 95 1011.6
20260904110914 14 331 0.0 0.0 0.00 0.00 0.00 95 1011.6
20260904110836 14 331 0.0 0.0 0.00 0.00 0.00 95 1011.6
20260904110707 14 331 0.0 0.0 0.00 0.00 0.00 95 1011.6
20260904110636 14 331 0.0 0.0 0.00 0.00 0.00 95 1011.6
20260904110506 14 331 0.0 0.0 0.00 0.00 0.00 95 1011.6
20260904110428 14 331 0.0 0.0 0.00 0.00 0.00 95 1011.6
20260904110232 14 331 0.0 0.0 0.00 0.00 0.00 95 1011.6
20260904110155 14 331 0.0 0.0 0.00 0.00 0.00 95 1011.6
20260904110039 14 331 0.0 0.0 0.00 0.00 0.00 95 1011.6
20260904110002 14 331 0.0 0.0 0.00 0.00 0.00 95 1011.6
20260904105904 14 331 0.0 0.0 0.00 0.00 0.00 95 1011.6
20260904105757 14 331 0.0 0.0 0.00 0.00 0.00 95 1011.6
20260904105658 14 331 0.0 0.0 0.00 0.00 0.00 95 1011.6
20260904105600 14 331 0.0 0.0 0.00 0.00 0.00 95 1011.6
20260904105508 14 331 0.0 0.0 0.00 0.00 0.00 95 1011.5
20260904105430 14 331 0.0 0.0 0.00 0.00 0.00 95 1011.5
20260904105301 14 331 0.0 0.0 0.00 0.00 0.00 95 1011.5
20260904105154 14 331 0.0 0.0 0.00 0.00 0.00 95 1011.5
20260904104944 14 331 0.0 0.0 0.00 0.00 0.00 95 1011.5
20260904104839 14 331 0.0 0.0 0.00 0.00 0.00 95 1011.5
20260904104723 14 331 0.0 0.0 0.00 0.00 0.00 95 1011.4
20260904104626 14 331 0.0 0.0 0.00 0.00 0.00 95 1011.4
20260904104549 14 331 0.0 0.0 0.00 0.00 0.00 95 1011.4
20260904104457 14 331 0.0 0.0 0.00 0.00 0.00 95 1011.4
20260904104418 14 331 0.0 0.0 0.00 0.00 0.00 95 1011.4
20260904104249 14 331 0.0 0.0 0.00 0.00 0.00 95 1011.4
20260904104124 14 331 0.0 0.0 0.00 0.00 0.00 95 1011.4
20260904104029 14 331 0.0 0.0 0.00 0.00 0.00 95 1011.4
20260904103952 14 331 0.0 0.0 0.00 0.00 0.00 95 1011.4
20260904103913 14 331 0.0 0.0 0.00 0.00 0.00 95 1011.3
20260904103818 14 331 0.0 0.0 0.00 0.00 0.00 95 1011.4
20260904103740 14 331 0.0 0.0 0.00 0.00 0.00 94 1011.4
20260904103609 14 331 0.0 0.0 0.00 0.00 0.00 94 1011.4
20260904103525 14 331 0.0 0.0 0.00 0.00 0.00 95 1011.4
20260904103359 14 331 0.0 0.0 0.00 0.00 0.00 95 1011.4
20260904103320 14 331 0.0 0.0 0.00 0.00 0.00 94 1011.4
20260904103152 14 331 0.0 0.0 0.00 0.00 0.00 94 1011.3
20260904103107 14 331 0.0 0.0 0.00 0.00 0.00 94 1011.4
20260904102938 14 331 0.0 0.0 0.00 0.00 0.00 94 1011.2
20260904102840 14 331 0.0 0.0 0.00 0.00 0.00 94 1011.2
20260904102643 14 331 0.0 0.0 0.00 0.00 0.00 95 1011.3
20260904102605 14 331 0.0 0.0 0.00 0.00 0.00 95 1011.2
20260904102509 14 331 0.0 0.0 0.00 0.00 0.00 95 1011.2
20260904102431 14 331 0.0 0.0 0.00 0.00 0.00 95 1011.2
20260904102251 14 331 0.0 0.0 0.00 0.00 0.00 95 1011.3
20260904102122 14 331 0.0 0.0 0.00 0.00 0.00 95 1011.2
20260904101938 14 331 0.0 0.0 0.00 0.00 0.00 95 1011.2
20260904101859 14 331 0.0 0.0 0.00 0.00 0.00 95 1011.2
20260904101724 14 331 0.0 0.0 0.00 0.00 0.00 95 1011.2
20260904101638 14 331 0.0 0.0 0.00 0.00 0.00 94 1011.2
20260904101427 15 331 0.0 0.0 0.00 0.00 0.00 95 1011.2
20260904101323 15 331 0.0 0.0 0.00 0.00 0.00 95 1011.2
20260904101246 15 331 0.0 0.0 0.00 0.00 0.00 95 1011.1
20260904101201 15 331 0.0 0.0 0.00 0.00 0.00 94 1011.1
20260904101035 15 331 0.0 0.0 0.00 0.00 0.00 94 1011.1
20260904100936 15 331 0.0 0.0 0.00 0.00 0.00 94 1011.1
20260904100738 15 331 0.0 0.0 0.00 0.00 0.00 94 1011.1
20260904100641 15 331 0.0 0.0 0.00 0.00 0.00 94 1011.1
20260904100526 15 331 0.0 0.0 0.00 0.00 0.00 94 1011.1
20260904100447 15 331 0.0 0.0 0.00 0.00 0.00 94 1011.0
20260904100311 15 331 0.0 0.0 0.00 0.00 0.00 95 1011.0
20260904100233 15 331 0.0 0.0 0.00 0.00 0.00 95 1011.0
20260904100044 15 331 0.0 0.0 0.00 0.00 0.00 95 1011.0
20260904095940 15 331 0.0 0.0 0.00 0.00 0.00 95 1011.1
20260904095903 15 331 0.0 0.0 0.00 0.00 0.00 95 1011.1
20260904095809 15 331 0.0 0.0 0.00 0.00 0.00 95 1011.1
20260904095729 15 331 0.0 0.0 0.00 0.00 0.00 95 1011.1
20260904095601 15 331 0.0 0.0 0.00 0.00 0.00 95 1011.1
20260904095515 15 331 0.0 0.0 0.00 0.00 0.00 95 1011.1
20260904095327 15 331 0.0 0.0 0.00 0.00 0.00 95 1011.1
20260904095240 15 331 0.0 0.0 0.00 0.00 0.00 95 1011.1
20260904095143 15 331 0.0 0.0 0.00 0.00 0.00 95 1011.1
20260904095022 15 331 0.0 0.0 0.00 0.00 0.00 95 1011.1
20260904094936 15 331 0.0 0.0 0.00 0.00 0.00 95 1011.1
20260904094808 15 331 0.0 0.0 0.00 0.00 0.00 95 1011.1
20260904094730 15 331 0.0 0.0 0.00 0.00 0.00 95 1011.1
20260904094535 15 331 0.0 0.0 0.00 0.00 0.00 95 1011.0
20260904094438 15 331 0.0 0.0 0.00 0.00 0.00 95 1011.0
20260904094344 15 331 0.0 0.0 0.00 0.00 0.00 95 1011.0
20260904094225 15 331 0.0 0.0 0.00 0.00 0.00 95 1011.0
20260904094130 15 331 0.0 0.0 0.00 0.00 0.00 95 1011.0
20260904094030 15 331 0.0 0.0 0.00 0.00 0.00 95 1011.0
20260904093904 15 331 0.0 0.0 0.00 0.00 0.00 95 1011.0
20260904093818 15 331 0.0 0.0 0.00 0.00 0.00 95 1011.0
20260904093629 15 331 0.0 0.0 0.00 0.00 0.00 95 1010.9
20260904093546 15 331 0.0 0.0 0.00 0.00 0.00 95 1011.0
20260904093416 15 331 0.0 0.0 0.00 0.00 0.00 95 1010.9
20260904093339 15 331 0.0 0.0 0.00 0.00 0.00 95 1010.9
20260904093142 15 331 0.0 0.0 0.00 0.00 0.00 95 1010.9
20260904093046 15 331 0.0 0.0 0.00 0.00 0.00 95 1010.9
20260904092949 15 331 0.0 0.0 0.00 0.00 0.00 95 1010.9
20260904092912 15 331 0.0 0.0 0.00 0.00 0.00 95 1010.9
20260904092816 15 331 0.0 0.0 0.00 0.00 0.00 95 1010.9
20260904092721 15 331 0.0 0.0 0.00 0.00 0.00 95 1010.9
20260904092643 15 331 0.0 0.0 0.00 0.00 0.00 95 1010.9
20260904092515 15 331 0.0 0.0 0.00 0.00 0.00 95 1010.9
20260904092429 15 331 0.0 0.0 0.00 0.00 0.00 95 1010.9
20260904092300 15 331 0.0 0.0 0.00 0.00 0.00 95 1010.9
20260904092220 15 331 0.0 0.0 0.00 0.00 0.00 95 1010.9
20260904092052 15 331 0.0 0.0 0.00 0.00 0.00 95 1010.8
20260904091925 15 331 0.0 0.0 0.00 0.00 0.00 95 1010.8
20260904091848 15 331 0.0 0.0 0.00 0.00 0.00 95 1010.8
20260904091732 15 331 0.0 0.0 0.00 0.00 0.00 95 1010.8
20260904091658 15 331 0.0 0.0 0.00 0.00 0.00 95 1010.8
20260904091540 15 331 0.0 0.0 0.00 0.00 0.00 95 1010.8
20260904091503 15 331 0.0 0.0 0.00 0.00 0.00 95 1010.7
20260904091424 15 331 0.0 0.0 0.00 0.00 0.00 95 1010.7
20260904091320 15 331 0.0 0.0 0.00 0.00 0.00 95 1010.7
20260904091241 15 331 0.0 0.0 0.00 0.00 0.00 95 1010.7
20260904091113 15 331 0.0 0.0 0.00 0.00 0.00 95 1010.7
20260904091028 15 331 0.0 0.0 0.00 0.00 0.00 95 1010.7
20260904090859 15 331 0.0 0.0 0.00 0.00 0.00 95 1010.7
20260904090820 15 331 0.0 0.0 0.00 0.00 0.00 95 1010.7
20260904090625 15 331 0.0 0.0 0.00 0.00 0.00 95 1010.7
20260904090532 15 331 0.0 0.0 0.00 0.00 0.00 95 1010.7
20260904090436 15 331 0.0 0.0 0.00 0.00 0.00 95 1010.7
20260904090338 15 331 0.0 0.0 0.00 0.00 0.00 95 1010.7
20260904090208 15 331 0.0 0.0 0.00 0.00 0.00 94 1010.7
20260904090124 15 331 0.0 0.0 0.00 0.00 0.00 94 1010.7
20260904085953 15 331 0.0 0.0 0.00 0.00 0.00 94 1010.7
20260904085914 15 331 0.0 0.0 0.00 0.00 0.00 94 1010.6
20260904085758 15 331 0.0 0.0 0.00 0.00 0.00 94 1010.6
20260904085638 15 331 0.0 0.0 0.00 0.00 0.00 94 1010.6
20260904085523 15 331 0.0 0.0 0.00 0.00 0.00 94 1010.5
20260904085445 15 331 0.0 0.0 0.00 0.00 0.00 94 1010.5
20260904085350 15 331 0.0 0.0 0.00 0.00 0.00 94 1010.5
20260904085256 15 331 0.0 0.0 0.00 0.00 0.00 94 1010.5
20260904085137 15 331 0.0 0.0 0.00 0.00 0.00 94 1010.6
20260904085043 15 331 0.0 0.0 0.00 0.00 0.00 94 1010.5
20260904084943 15 331 0.0 0.0 0.00 0.00 0.00 94 1010.6
20260904084814 15 331 0.0 0.0 0.00 0.00 0.00 94 1010.6
20260904084729 15 331 0.0 0.0 0.00 0.00 0.00 94 1010.6
20260904084540 15 331 0.0 0.0 0.00 0.00 0.00 94 1010.6
20260904084454 15 331 0.0 0.0 0.00 0.00 0.00 94 1010.6
20260904084245 15 331 0.0 0.0 0.00 0.00 0.00 94 1010.6
20260904084211 15 331 0.0 0.0 0.00 0.00 0.00 95 1010.6
20260904084035 15 331 0.0 0.0 0.00 0.00 0.00 95 1010.6
20260904083958 15 331 0.0 0.0 0.00 0.00 0.00 94 1010.6
20260904083840 15 331 0.0 0.0 0.00 0.00 0.00 94 1010.6
20260904083803 16 331 0.0 0.0 0.00 0.00 0.00 94 1010.6
20260904083725 16 331 0.0 0.0 0.00 0.00 0.00 95 1010.5
20260904083607 16 331 0.0 0.0 0.00 0.00 0.00 95 1010.5
20260904083530 16 331 0.0 0.0 0.00 0.00 0.00 95 1010.5
20260904083334 16 331 0.0 0.0 0.00 0.00 0.00 95 1010.6
20260904083236 16 331 0.0 0.0 0.00 0.00 0.00 95 1010.6
20260904083124 16 331 0.0 0.0 0.00 0.00 0.00 95 1010.6
20260904083047 16 331 0.0 0.0 0.00 0.00 0.00 95 1010.6
20260904082919 16 331 0.0 0.0 0.00 0.00 0.00 94 1010.7
20260904082833 16 331 0.0 0.0 0.00 0.00 0.00 94 1010.7
20260904082644 16 331 0.0 0.0 0.00 0.00 0.00 94 1010.7
20260904082539 16 331 0.0 0.0 0.00 0.00 0.00 95 1010.7
20260904082427 16 331 0.0 0.0 0.00 0.00 0.00 95 1010.7
20260904082350 16 331 0.0 0.0 0.00 0.00 0.00 95 1010.7
20260904082137 16 331 0.0 0.0 0.00 0.00 0.00 94 1010.7
20260904082040 16 331 0.0 0.0 0.00 0.00 0.00 95 1010.7
20260904081945 16 115 0.0 0.0 0.00 0.00 0.00 95 1010.6
20260904081907 16 115 0.0 0.0 0.00 0.00 0.00 95 1010.6
20260904081647 16 115 0.0 0.0 0.00 0.00 0.00 95 1010.7
20260904081541 16 115 0.0 0.0 0.00 0.00 0.00 95 1010.6
20260904081412 16 115 0.0 0.0 0.00 0.00 0.00 95 1010.6
20260904081314 16 115 0.0 0.0 0.00 0.00 0.00 95 1010.6
20260904081210 16 115 0.0 0.0 0.00 0.00 0.00 95 1010.6
20260904081114 16 115 0.0 0.0 0.00 0.00 0.00 95 1010.6
20260904081035 16 115 0.0 0.0 0.00 0.00 0.00 95 1010.6
20260904080907 16 5 0.0 0.0 0.00 0.00 0.00 95 1010.7
20260904080827 16 5 0.0 0.0 0.00 0.00 0.00 95 1010.7
20260904080656 16 5 0.0 0.0 0.00 0.00 0.00 95 1010.7
20260904080621 16 5 0.0 0.0 0.00 0.00 0.00 95 1010.7
20260904080535 16 5 0.0 0.0 0.00 0.00 0.00 95 1010.7
20260904080405 16 5 0.0 0.0 0.00 0.00 0.00 95 1010.7
20260904080328 16 5 0.0 0.0 0.00 0.00 0.00 95 1010.7
20260904080132 16 5 0.0 0.0 0.00 0.00 0.00 95 1010.7
20260904080055 16 5 0.0 0.0 0.00 0.00 0.00 95 1010.7
20260904075939 16 5 0.0 0.0 0.00 0.00 0.00 95 1010.6
20260904075902 16 5 0.0 0.0 0.00 0.05 0.00 95 1010.6
20260904075729 16 5 0.0 0.0 0.00 0.05 0.00 95 1010.7
20260904075650 16 5 0.0 0.0 0.00 0.05 0.00 95 1010.7
20260904075613 16 5 0.0 0.0 0.00 0.05 0.00 95 1010.7
20260904075518 16 5 0.0 0.0 0.00 0.05 0.00 95 1010.7
20260904075439 16 5 0.0 0.0 0.00 0.05 0.00 95 1010.7
20260904075308 16 5 0.0 0.0 0.00 0.05 0.00 95 1010.7
20260904075200 16 5 0.0 0.0 0.00 0.05 0.00 95 1010.7
20260904075030 16 5 0.0 0.0 0.00 0.05 0.00 95 1010.6
20260904074930 16 5 0.0 0.0 0.00 0.05 0.00 95 1010.6
20260904074732 16 5 0.0 0.0 0.00 0.05 0.00 95 1010.6
20260904074653 16 5 0.0 0.0 0.00 0.05 0.00 95 1010.6
20260904074542 16 5 0.0 0.0 0.00 0.05 0.00 95 1010.6
20260904074503 16 5 0.0 0.0 0.00 0.05 0.00 95 1010.6
20260904074332 16 5 0.0 0.0 0.00 0.05 0.00 95 1010.6
20260904074223 16 5 0.0 0.0 0.00 0.05 0.00 95 1010.6
20260904074034 16 5 0.0 0.0 0.00 0.05 0.00 95 1010.6
20260904073929 16 5 0.0 0.0 0.00 0.05 0.00 95 1010.6
20260904073824 16 5 0.0 0.0 0.00 0.05 0.00 95 1010.6
20260904073744 16 5 0.0 0.0 0.00 0.05 0.00 95 1010.6
20260904073627 16 5 0.0 0.0 0.00 0.05 0.00 95 1010.6
20260904073553 16 5 0.0 0.0 0.00 0.05 0.00 95 1010.6
20260904073401 16 5 0.0 0.0 0.00 0.05 0.00 95 1010.7
20260904073318 16 5 0.0 0.0 0.00 0.05 0.00 95 1010.7
20260904073127 16 5 0.0 0.0 0.00 0.05 0.00 95 1010.6
20260904073043 16 5 0.0 0.0 0.00 0.05 0.00 95 1010.6
20260904072945 16 5 0.0 0.0 0.00 0.05 0.00 95 1010.6
20260904072906 16 5 0.0 0.0 0.00 0.05 0.00 95 1010.6
20260904072822 16 5 0.0 0.0 0.00 0.05 0.00 95 1010.6
20260904072631 16 5 0.0 0.0 0.00 0.05 0.00 95 1010.6
20260904072545 16 32 0.0 0.0 0.00 0.05 0.00 95 1010.5
20260904072418 16 65 0.0 0.0 0.00 0.05 0.00 95 1010.5
20260904072343 16 65 0.0 0.0 0.00 0.05 0.00 95 1010.5
20260904072213 16 65 0.0 0.0 0.00 0.05 0.00 95 1010.5
20260904072128 16 65 0.0 0.0 0.00 0.05 0.00 95 1010.5
20260904071957 16 65 0.0 0.0 0.00 0.05 0.00 95 1010.5
20260904071921 16 65 0.0 0.0 0.00 0.05 0.00 95 1010.5
20260904071835 16 65 0.0 0.0 0.00 0.05 0.00 95 1010.5
20260904071704 16 65 0.0 0.0 0.00 0.05 0.00 95 1010.5
20260904071626 16 65 0.0 0.0 0.00 0.05 0.00 95 1010.5
20260904071421 16 65 0.0 0.0 0.00 0.05 0.00 95 1010.6
20260904071200 16 65 0.0 0.0 0.00 0.05 0.00 95 1010.7
20260904071115 16 65 0.0 0.0 0.00 0.05 0.00 95 1010.7
20260904070945 16 44 0.0 0.0 0.00 0.05 0.00 95 1010.7
20260904070848 16 44 0.0 0.0 0.00 0.05 0.00 95 1010.8
20260904070718 16 336 0.0 0.0 0.00 0.05 0.00 95 1010.7
20260904070632 16 336 0.0 0.0 0.00 0.05 0.00 95 1010.7
20260904070443 16 336 0.0 0.0 0.00 0.05 0.00 95 1010.7
20260904070337 16 336 0.0 0.0 0.00 0.05 0.00 95 1010.7
20260904070258 16 336 0.0 0.0 0.00 0.05 0.00 95 1010.7
20260904070202 16 336 0.0 0.0 0.00 0.05 0.00 95 1010.6
20260904065911 16 336 0.0 0.0 0.00 0.46 0.00 95 1010.6
20260904065827 16 360 0.0 0.0 0.00 0.46 0.00 95 1010.6
20260904065640 16 59 0.0 0.0 0.00 0.46 0.00 95 1010.5
20260904065536 16 59 0.0 0.0 0.00 0.46 0.00 95 1010.6
20260904065431 16 59 0.0 0.0 0.00 0.46 0.00 95 1010.5
20260904065351 16 59 0.0 0.0 0.00 0.46 0.00 95 1010.5
20260904065211 16 59 0.0 0.0 0.00 0.46 0.00 95 1010.6
20260904065126 16 59 0.0 0.0 0.00 0.46 0.00 95 1010.6
20260904064935 16 59 0.0 0.0 0.00 0.46 0.00 95 1010.6
20260904064830 16 59 0.0 0.0 0.00 0.46 0.00 95 1010.6
20260904064726 16 59 0.0 0.0 0.00 0.46 0.00 95 1010.5
20260904064648 16 59 0.0 0.0 0.00 0.46 0.00 95 1010.5
20260904064518 16 59 0.0 0.0 0.00 0.46 0.00 95 1010.5
20260904064432 16 59 0.0 0.0 0.00 0.46 0.00 95 1010.5
20260904064242 16 59 0.0 0.0 0.00 0.46 0.00 95 1010.5
20260904064138 16 59 0.0 0.0 0.00 0.46 0.00 95 1010.5
20260904064023 16 59 0.0 0.0 0.00 0.46 0.00 95 1010.5
20260904063944 16 59 0.0 0.0 0.00 0.46 0.00 95 1010.5
20260904063813 16 59 0.0 0.0 0.00 0.46 0.00 95 1010.5
20260904063728 16 59 0.0 0.0 0.00 0.46 0.00 95 1010.5
20260904063601 16 59 0.0 0.0 0.00 0.46 0.00 95 1010.5
20260904063524 16 59 0.0 0.0 0.00 0.46 0.00 95 1010.5
20260904063353 16 59 0.0 0.0 0.00 0.46 0.00 95 1010.6
20260904063226 16 59 0.0 0.0 0.00 0.46 0.00 95 1010.6
20260904063147 16 59 0.0 0.0 0.00 0.46 0.00 95 1010.6
20260904063052 16 59 0.0 0.0 0.00 0.46 0.00 95 1010.6
20260904063014 16 59 0.0 0.0 0.00 0.46 0.00 95 1010.7
20260904062822 16 59 0.0 0.0 0.00 0.46 0.00 95 1010.8
20260904062716 16 59 0.0 0.0 0.00 0.46 0.00 95 1010.8
20260904062546 16 59 0.0 0.0 0.00 0.46 0.00 95 1010.8
20260904062447 16 59 0.0 0.0 0.00 0.46 0.00 95 1010.8
20260904062233 16 334 0.0 0.0 0.00 0.46 0.00 95 1010.8
20260904062155 16 334 0.0 0.0 0.00 0.46 0.00 95 1010.8
20260904062057 16 334 0.0 0.0 0.00 0.46 0.00 95 1010.8
20260904062019 16 334 0.0 0.0 0.00 0.46 0.00 95 1010.8
20260904061821 16 334 0.0 0.0 0.00 0.46 0.00 95 1010.8
20260904061733 16 334 0.0 0.0 0.00 0.46 0.00 95 1010.9
20260904061627 16 334 0.0 0.0 0.00 0.46 0.00 95 1010.9
20260904061548 16 334 0.0 0.0 0.00 0.46 0.00 95 1010.8
20260904061331 16 334 0.0 0.0 0.00 0.46 0.00 95 1010.9
20260904061255 16 334 0.0 0.0 0.00 0.46 0.00 95 1010.9
20260904061158 16 334 0.0 0.0 0.00 0.46 0.00 95 1010.9
20260904061037 16 334 0.0 0.0 0.00 0.46 0.00 95 1010.8
20260904060950 16 334 0.0 0.0 0.00 0.46 0.00 95 1010.9
20260904060830 16 334 0.0 0.0 0.00 0.46 0.00 95 1010.9
20260904060753 16 334 0.0 0.0 0.00 0.46 0.00 95 1010.9
20260904060635 16 334 0.0 0.0 0.00 0.46 0.00 95 1010.9
20260904060558 16 334 0.0 0.0 0.00 0.46 0.00 94 1010.9
20260904060441 16 334 0.0 0.0 0.00 0.46 0.00 94 1010.9
20260904060402 16 334 0.0 0.0 0.00 0.46 0.00 94 1010.9
20260904060327 16 334 0.0 0.0 0.00 0.46 0.00 94 1011.0
20260904060210 16 334 0.0 0.0 0.00 0.46 0.00 94 1010.9
20260904060132 16 334 0.0 0.0 0.00 0.46 0.00 94 1010.9
20260904060001 16 334 0.0 0.0 0.00 0.46 0.00 94 1010.9
20260904055915 16 334 0.0 0.0 0.00 0.51 0.00 94 1011.0
20260904055723 16 334 0.0 0.0 0.00 0.51 0.00 94 1011.0
20260904055639 16 334 0.0 0.0 0.00 0.51 0.00 94 1011.0
20260904055447 16 334 0.0 0.0 0.00 0.51 0.00 94 1011.0
20260904055347 16 334 0.0 0.0 0.00 0.51 0.00 94 1011.0
20260904055241 16 334 0.0 0.0 0.00 0.51 0.00 94 1010.9
20260904055202 16 334 0.0 0.0 0.00 0.51 0.00 94 1010.9
20260904055120 16 334 0.0 0.0 0.00 0.51 0.00 94 1010.9
20260904054930 16 334 0.0 0.0 0.00 0.51 0.00 94 1011.0
20260904054844 16 334 0.0 0.0 0.00 0.51 0.00 94 1011.0
20260904054714 16 334 0.0 0.0 0.00 0.51 0.00 94 1011.0
20260904054613 16 334 0.0 0.0 0.00 0.51 0.00 94 1011.0
20260904054436 16 334 0.0 0.0 0.00 0.51 0.00 94 1011.0
20260904054357 16 334 0.0 0.0 0.00 0.51 0.00 94 1011.0
20260904054321 16 334 0.0 0.0 0.00 0.51 0.00 94 1011.0
20260904054223 16 334 0.0 0.0 0.00 0.51 0.00 94 1011.0
20260904054123 16 334 0.0 0.0 0.00 0.51 0.00 94 1011.0
20260904053930 16 334 0.0 0.0 0.00 0.51 0.00 94 1011.0
20260904053830 16 334 0.0 0.0 0.00 0.51 0.00 94 1011.0
20260904053734 16 334 0.0 0.0 0.00 0.51 0.00 94 1011.0
20260904053655 16 334 0.0 0.0 0.00 0.51 0.00 94 1011.0
20260904053616 16 334 0.0 0.0 0.00 0.51 0.00 94 1011.0
20260904053521 16 334 0.0 0.0 0.00 0.51 0.00 94 1011.0
20260904053422 16 334 0.0 0.0 0.00 0.51 0.00 94 1011.0
20260904053226 16 334 0.0 0.0 0.00 0.51 0.00 94 1011.1
20260904053127 16 334 0.0 0.0 0.00 0.51 0.00 94 1011.1
20260904053031 16 334 0.0 0.0 0.00 0.51 0.00 94 1011.0
20260904052936 16 334 0.0 0.0 0.00 0.51 0.00 94 1011.0
20260904052806 16 334 0.0 0.0 0.00 0.51 0.00 94 1011.1
20260904052720 16 334 0.0 0.0 0.00 0.51 0.00 94 1011.1
20260904052532 16 334 0.0 0.0 0.00 0.51 0.00 94 1011.1
20260904052447 16 334 0.0 0.0 0.00 0.51 0.00 94 1011.1
20260904052316 16 334 0.0 0.0 0.00 0.51 0.00 94 1011.1
20260904052237 16 334 0.0 0.0 0.00 0.51 0.00 94 1011.1
20260904052040 16 334 0.0 0.0 0.00 0.51 0.00 94 1011.1
20260904051959 16 334 0.0 0.0 0.00 0.51 0.00 94 1011.0
20260904051843 16 334 0.0 0.0 0.00 0.51 0.00 94 1011.0
20260904051808 16 334 0.0 0.0 0.00 0.51 0.00 94 1011.0
20260904051617 16 334 0.0 0.0 0.00 0.51 0.00 94 1011.1
20260904051532 16 334 0.0 0.0 0.00 0.51 0.00 94 1011.1
20260904051342 16 334 0.0 0.0 0.00 0.51 0.00 93 1011.1
20260904051218 16 334 0.0 0.0 0.00 0.51 0.00 93 1011.1
20260904051142 16 334 0.0 0.0 0.00 0.51 0.00 93 1011.1
20260904051042 16 334 0.0 0.0 0.00 0.51 0.00 93 1011.1
20260904050911 16 334 0.0 0.0 0.00 0.51 0.00 93 1011.1
20260904050815 16 334 0.0 0.0 0.00 0.51 0.00 93 1011.1
20260904050736 16 334 0.0 0.0 0.00 0.51 0.00 93 1011.1
20260904050610 16 314 0.0 0.0 0.00 0.51 0.00 94 1011.1
20260904050423 16 314 0.0 0.0 0.00 0.51 0.00 94 1011.1
20260904050327 16 314 0.0 0.0 0.00 0.51 0.00 94 1011.1
20260904050248 16 314 0.0 0.0 0.00 0.51 0.00 94 1011.1
20260904050118 16 314 0.0 0.0 0.00 0.51 0.00 94 1011.1
20260904050032 16 314 0.0 0.0 0.00 0.51 0.00 94 1011.1
20260904045901 16 314 0.0 0.0 0.00 0.79 0.00 94 1011.1
20260904045824 16 314 0.0 0.0 0.00 0.79 0.00 93 1011.1
20260904045627 16 314 0.0 0.0 0.00 0.79 0.00 93 1011.2
20260904045547 16 314 0.0 0.0 0.00 0.79 0.00 93 1011.2
20260904045455 17 314 0.0 0.0 0.00 0.79 0.00 93 1011.1
20260904045416 17 314 0.0 0.0 0.00 0.79 0.00 93 1011.1
20260904045245 17 314 0.0 0.0 0.00 0.79 0.00 93 1011.2
20260904045140 17 314 0.0 0.0 0.00 0.79 0.00 94 1011.2
20260904045023 17 314 0.0 0.0 0.00 0.79 0.00 94 1011.2
20260904044944 17 314 0.0 0.0 0.00 0.79 0.00 94 1011.2
20260904044905 17 314 0.0 0.0 0.00 0.79 0.00 94 1011.1
20260904044759 17 314 0.0 0.0 0.00 0.79 0.00 94 1011.2
20260904044659 17 314 0.0 0.0 0.00 0.79 0.00 94 1011.2
20260904044528 17 314 0.0 0.0 0.00 0.79 0.00 93 1011.2
20260904044430 17 314 0.0 0.0 0.00 0.79 0.00 93 1011.2
20260904044317 17 314 0.0 0.0 0.00 0.79 0.00 93 1011.2
20260904044240 17 314 0.0 0.0 0.00 0.79 0.00 93 1011.2
20260904044109 17 314 0.0 0.0 0.00 0.79 0.00 93 1011.2
20260904044023 17 314 0.0 0.0 0.00 0.79 0.00 93 1011.2
20260904043834 17 314 0.0 0.0 0.00 0.79 0.00 93 1011.2
20260904043747 17 314 0.0 0.0 0.00 0.79 0.00 94 1011.2
20260904043617 17 314 0.0 0.0 0.00 0.79 0.00 94 1011.3
20260904043517 17 314 0.0 0.0 0.00 0.79 0.00 94 1011.3
20260904043340 17 314 0.0 0.0 0.00 0.79 0.00 94 1011.3
20260904043242 17 314 0.0 0.0 0.00 0.79 0.00 93 1011.3
20260904043129 17 314 0.0 0.0 0.00 0.79 0.00 93 1011.4
20260904043051 17 314 0.0 0.0 0.00 0.79 0.00 93 1011.4
20260904042832 17 314 0.0 0.0 0.00 0.79 0.00 94 1011.4
20260904042753 17 314 0.0 0.0 0.00 0.79 0.00 94 1011.4
20260904042657 17 314 0.0 0.0 0.00 0.79 0.00 94 1011.4
20260904042537 17 314 0.0 0.0 0.00 0.79 0.00 94 1011.4
20260904042502 17 314 0.0 0.0 0.00 0.79 0.00 94 1011.5
20260904042404 17 314 0.0 0.0 0.00 0.79 0.00 94 1011.5
20260904042325 17 314 0.0 0.0 0.00 0.79 0.00 94 1011.5
20260904042128 17 314 0.0 0.0 0.00 0.79 0.00 94 1011.5
20260904042032 17 314 0.0 0.0 0.00 0.79 0.00 94 1011.6
20260904041938 17 314 0.0 0.0 0.00 0.79 0.00 94 1011.5
20260904041859 17 314 0.0 0.0 0.00 0.79 0.00 94 1011.5
20260904041821 17 314 0.0 0.0 0.00 0.79 0.00 94 1011.5
20260904041713 17 314 0.0 0.0 0.00 0.79 0.00 94 1011.4
20260904041614 17 314 0.0 0.0 0.00 0.79 0.00 94 1011.5
20260904041444 17 314 0.0 0.0 0.00 0.79 0.00 94 1011.5
20260904041338 17 314 0.0 0.0 0.00 0.79 0.00 94 1011.5
20260904041309 17 314 0.0 0.0 0.00 0.79 0.00 94 1011.5
20260904041212 17 314 0.0 0.0 0.00 0.79 0.00 94 1011.6
20260904041133 17 314 0.0 0.0 0.00 0.79 0.00 94 1011.6
20260904041007 17 314 0.0 0.0 0.00 0.79 0.00 94 1011.5
20260904040921 17 314 0.0 0.0 0.00 0.79 0.00 94 1011.5
20260904040750 17 314 0.0 0.0 0.00 0.79 0.00 94 1011.6
20260904040710 17 314 0.0 0.0 0.00 0.79 0.00 94 1011.6
20260904040613 17 314 0.0 0.0 0.00 0.79 0.00 93 1011.6
20260904040515 17 314 0.0 0.0 0.00 0.79 0.00 93 1011.6
20260904040437 17 314 0.0 0.0 0.00 0.79 0.00 93 1011.6
20260904040215 17 314 0.0 0.0 0.00 0.79 0.00 94 1011.7
20260904040129 17 314 0.0 0.0 0.00 0.79 0.00 94 1011.7
20260904035942 17 314 0.0 0.0 0.00 0.79 0.00 93 1011.7
20260904035858 17 314 0.0 0.0 0.00 0.79 0.79 93 1011.6
20260904035707 17 314 0.0 0.0 0.00 0.79 0.79 94 1011.6
20260904035634 17 314 0.0 0.0 0.00 0.79 0.79 94 1011.6
20260904035457 17 314 0.0 0.0 0.00 0.79 0.79 93 1011.6
20260904035420 17 314 0.0 0.0 0.00 0.79 0.79 93 1011.6
20260904035229 17 314 0.0 0.0 0.00 0.79 0.79 93 1011.6
20260904035144 17 314 0.0 0.0 0.00 0.79 0.79 93 1011.6
20260904035015 17 314 0.0 0.0 0.00 0.79 0.79 93 1011.6
20260904034938 17 314 0.0 0.0 0.00 0.79 0.79 93 1011.6
20260904034740 17 314 0.0 0.0 0.00 0.79 0.79 93 1011.6
20260904034701 17 314 0.0 0.0 0.00 0.79 0.79 93 1011.6
20260904034605 17 314 0.0 0.0 0.00 0.79 0.79 93 1011.6
20260904034526 17 314 0.0 0.0 0.00 0.79 0.79 93 1011.6
20260904034335 17 314 0.0 0.0 0.00 0.79 0.79 93 1011.6
20260904034236 17 314 0.0 0.0 0.00 0.79 0.79 93 1011.6
20260904034140 17 314 0.0 0.0 0.00 0.79 0.79 93 1011.6
20260904034041 18 314 0.0 0.0 0.00 0.79 0.79 93 1011.6
20260904033936 18 314 0.0 0.0 0.00 0.79 0.79 93 1011.6
20260904033838 18 314 0.0 0.0 0.00 0.79 0.79 93 1011.6
20260904033803 18 314 0.0 0.0 0.00 0.79 0.79 93 1011.6
20260904033706 18 314 0.0 0.0 0.00 0.79 0.79 93 1011.6
20260904033628 18 314 0.0 0.0 0.00 0.79 0.79 93 1011.5
20260904033443 18 314 0.0 0.0 0.00 0.79 0.79 93 1011.5
20260904033337 18 314 0.0 0.0 0.00 0.79 0.79 93 1011.5
20260904033207 18 314 0.0 0.0 0.00 0.79 0.79 93 1011.4
20260904033107 18 314 0.0 0.0 0.00 0.79 0.79 93 1011.4
20260904033000 18 314 0.0 0.0 0.00 0.79 0.79 94 1011.4
20260904032840 18 314 0.0 0.0 0.00 0.79 0.79 94 1011.4
20260904032745 18 314 0.0 0.0 0.00 0.79 0.79 94 1011.4
20260904032626 18 314 0.0 0.0 0.00 0.79 0.79 94 1011.4
20260904032531 18 314 0.0 0.0 0.00 0.79 0.79 93 1011.4
20260904032432 18 314 0.0 0.0 0.00 0.79 0.79 93 1011.4
20260904032357 18 314 0.0 0.0 0.00 0.79 0.79 93 1011.4
20260904032305 18 314 0.0 0.0 0.00 0.79 0.79 93 1011.4
20260904032223 18 314 0.0 0.0 0.00 0.79 0.79 93 1011.4
20260904032029 18 314 0.0 0.0 0.00 0.79 0.79 93 1011.3
20260904031932 18 314 0.0 0.0 0.00 0.79 0.79 93 1011.4
20260904031835 18 314 0.0 0.0 0.00 0.79 0.79 93 1011.4
20260904031755 18 314 0.0 0.0 0.00 0.79 0.79 94 1011.4
20260904031717 18 314 0.0 0.0 0.00 0.79 0.79 94 1011.4
20260904031602 18 314 0.0 0.0 0.00 0.79 0.79 94 1011.4
20260904031525 18 314 0.0 0.0 0.00 0.79 0.79 94 1011.4
20260904031340 18 314 0.0 0.0 0.00 0.79 0.79 94 1011.4
20260904031233 18 314 0.0 0.0 0.00 0.79 0.79 93 1011.4
20260904031155 18 314 0.0 0.0 0.00 0.79 0.79 93 1011.4
20260904031121 18 314 0.0 0.0 0.00 0.79 0.79 93 1011.4
20260904031018 18 314 0.0 0.0 0.00 0.79 0.79 93 1011.4
20260904030823 18 314 0.0 0.0 0.00 0.79 0.79 93 1011.4
20260904030724 18 314 0.0 0.0 0.00 0.79 0.79 93 1011.4
20260904030628 18 314 0.0 0.0 0.00 0.79 0.79 93 1011.4
20260904030550 18 314 0.0 0.0 0.00 0.79 0.79 93 1011.4
20260904030358 18 314 0.0 0.0 0.00 0.79 0.79 94 1011.4
20260904030319 18 314 0.0 0.0 0.00 0.79 0.79 94 1011.5
20260904030128 18 314 0.0 0.0 0.00 0.79 0.79 94 1011.5
20260904030042 18 314 0.0 0.0 0.00 0.79 0.79 94 1011.4
20260904025912 18 314 0.0 0.0 0.00 0.79 0.79 94 1011.5
20260904025834 18 314 0.0 0.0 0.00 0.79 0.79 93 1011.5
20260904025703 18 314 0.0 0.0 0.00 0.79 0.79 93 1011.6
20260904025618 18 314 0.0 0.0 0.00 0.79 0.79 93 1011.6
20260904025429 18 314 0.0 0.0 0.00 0.79 0.79 93 1011.5
20260904025345 18 314 0.0 0.0 0.00 0.79 0.79 93 1011.5
20260904025215 18 314 0.0 0.0 0.00 0.79 0.79 93 1011.5
20260904025116 18 314 0.0 0.0 0.00 0.79 0.79 93 1011.6
20260904024922 18 314 0.0 0.0 0.00 0.79 0.79 93 1011.6
20260904024848 18 314 0.0 0.0 0.00 0.79 0.79 93 1011.6
20260904024656 18 314 0.0 0.0 0.00 0.79 0.79 93 1011.6
20260904024617 18 314 0.0 0.0 0.00 0.79 0.79 93 1011.6
20260904024441 18 314 0.0 0.0 0.00 0.79 0.79 93 1011.6
20260904024344 18 314 0.0 0.0 0.00 0.79 0.79 93 1011.6
20260904024247 18 314 0.0 0.0 0.00 0.79 0.79 93 1011.6
20260904024148 18 314 0.0 0.0 0.00 0.79 0.79 93 1011.7
20260904024018 18 314 0.0 0.0 0.00 0.79 0.79 93 1011.7
20260904023923 18 314 0.0 0.0 0.00 0.79 0.79 93 1011.7
20260904023757 18 314 0.0 0.0 0.00 0.79 0.79 93 1011.6
20260904023656 18 314 0.0 0.0 0.00 0.79 0.79 93 1011.6
20260904023618 18 314 0.0 0.0 0.00 0.79 0.79 93 1011.6
20260904023522 18 314 0.0 0.0 0.00 0.79 0.79 93 1011.6
20260904023423 18 314 0.0 0.0 0.00 0.79 0.79 93 1011.6
20260904023225 18 314 0.0 0.0 0.00 0.79 0.79 93 1011.6
20260904023126 18 314 0.0 0.0 0.00 0.79 0.79 93 1011.6
20260904023031 18 314 0.0 0.0 0.00 0.79 0.79 93 1011.6
20260904022953 18 314 0.0 0.0 0.00 0.79 0.79 93 1011.6
20260904022915 18 314 0.0 0.0 0.00 0.79 0.79 93 1011.7
20260904022757 18 314 0.0 0.0 0.00 0.79 0.79 93 1011.7
20260904022724 18 314 0.0 0.0 0.00 0.79 0.79 93 1011.7
20260904022555 18 314 0.0 0.0 0.00 0.79 0.79 93 1011.6
20260904022510 18 314 0.0 0.0 0.00 0.79 0.79 93 1011.6
20260904022318 18 314 0.0 0.0 0.00 0.79 0.79 93 1011.6
20260904022239 18 314 0.0 0.0 0.00 0.79 0.79 93 1011.6
20260904022110 18 314 0.0 0.0 0.00 0.79 0.79 93 1011.7
20260904022026 18 314 0.0 0.0 0.00 0.79 0.79 93 1011.7
20260904021836 18 314 0.0 0.0 0.00 0.79 0.79 92 1011.7
20260904021732 18 314 0.0 0.0 0.00 0.79 0.79 92 1011.7
20260904021653 18 314 0.0 0.0 0.00 0.79 0.79 92 1011.7
20260904021558 18 314 0.0 0.0 0.00 0.79 0.79 92 1011.7
20260904021523 18 314 0.0 0.0 0.00 0.79 0.79 92 1011.7
20260904021355 18 314 0.0 0.0 0.00 0.79 0.79 92 1011.8
20260904021229 18 314 0.0 0.0 0.00 0.79 0.79 91 1011.8
20260904021200 18 314 0.0 0.0 0.00 0.79 0.79 91 1011.8
20260904021106 18 314 0.0 0.0 0.00 0.79 0.79 92 1011.7
20260904021028 18 314 0.0 0.0 0.00 0.79 0.79 91 1011.7
20260904020841 18 314 0.0 0.0 0.00 0.79 0.79 91 1011.7
20260904020733 18 314 0.0 0.0 0.00 0.79 0.79 92 1011.7
20260904020656 18 314 0.0 0.0 0.00 0.79 0.79 92 1011.7
20260904020524 18 314 0.0 0.0 0.00 0.79 0.79 92 1011.7
20260904020439 18 314 0.0 0.0 0.00 0.79 0.79 91 1011.8
20260904020308 18 314 0.0 0.0 0.00 0.79 0.79 91 1011.8
20260904020230 18 314 0.0 0.0 0.00 0.79 0.79 92 1011.8
20260904015943 18 314 0.0 0.0 0.00 0.79 0.79 92 1011.8
20260904015905 18 314 0.0 0.0 0.00 0.79 0.79 92 1011.8
20260904015807 18 314 0.0 0.0 0.00 0.79 0.79 92 1011.8
20260904015729 18 314 0.0 0.0 0.00 0.79 0.79 92 1011.8
20260904015600 18 314 0.0 0.0 0.00 0.79 0.79 92 1011.8
20260904015516 18 314 0.0 0.0 0.00 0.79 0.79 92 1011.8
20260904015346 18 314 0.0 0.0 0.00 0.79 0.79 91 1011.8
20260904015311 18 314 0.0 0.0 0.00 0.79 0.79 91 1011.9
20260904015232 18 314 0.0 0.0 0.00 0.79 0.79 91 1011.9
20260904015115 18 314 0.0 0.0 0.00 0.79 0.79 91 1011.9
20260904015037 18 314 0.0 0.0 0.00 0.79 0.79 92 1011.9
20260904014906 19 314 0.0 0.0 0.00 0.79 0.79 92 1011.9
20260904014741 19 314 0.0 0.0 0.00 0.79 0.79 91 1011.9
20260904014627 19 314 0.0 0.0 0.00 0.79 0.79 91 1011.9
20260904014547 19 314 0.0 0.0 0.00 0.79 0.79 91 1012.0
20260904014510 19 314 0.0 0.0 0.00 0.79 0.79 91 1011.9
20260904014414 19 314 0.0 0.0 0.00 0.79 0.79 91 1012.0
20260904014335 19 314 0.0 0.0 0.00 0.79 0.79 91 1012.0
20260904014209 19 314 0.0 0.0 0.00 0.79 0.79 91 1012.1
20260904014124 19 314 0.0 0.0 0.00 0.79 0.79 92 1012.1
20260904013934 19 314 0.0 0.0 0.00 0.79 0.79 91 1012.2
20260904013850 19 314 0.0 0.0 0.00 0.79 0.79 91 1012.1
20260904013719 19 314 0.0 0.0 0.00 0.79 0.79 91 1012.0
20260904013640 19 314 0.0 0.0 0.00 0.79 0.79 91 1012.0
20260904013513 19 314 0.0 0.0 0.00 0.79 0.79 91 1012.0
20260904013428 19 314 0.0 0.0 0.00 0.79 0.79 92 1012.0
20260904013240 19 314 0.0 0.0 0.00 0.79 0.79 91 1012.0
20260904013135 19 314 0.0 0.0 0.00 0.79 0.79 92 1011.9
20260904013023 19 314 0.0 0.0 0.00 0.79 0.79 91 1011.9
20260904012943 19 314 0.0 0.0 0.00 0.79 0.79 92 1011.9
20260904012906 19 314 0.0 0.0 0.00 0.79 0.79 92 1011.9
20260904012810 19 314 0.0 0.0 0.00 0.79 0.79 92 1012.0
20260904012731 19 314 0.0 0.0 0.00 0.79 0.79 92 1012.0
20260904012602 19 314 0.0 0.0 0.00 0.79 0.79 92 1011.9
20260904012518 19 314 0.0 0.0 0.00 0.79 0.79 92 1011.9
20260904012347 19 314 0.0 0.0 0.00 0.79 0.79 92 1011.9
20260904012257 19 314 0.0 0.0 0.00 0.79 0.79 92 1011.9
20260904012139 19 314 0.0 0.0 0.00 0.79 0.79 92 1011.8
20260904012026 19 314 0.0 0.0 0.00 0.79 0.79 92 1011.8
20260904011942 19 314 0.0 0.0 0.00 0.79 0.79 92 1011.8
20260904011903 19 314 0.0 0.0 0.00 0.79 0.79 92 1011.8
20260904011825 19 314 0.0 0.0 0.00 0.79 0.79 92 1011.8
20260904011628 19 314 0.0 0.0 0.00 0.79 0.79 92 1011.8
20260904011550 19 314 0.0 0.0 0.00 0.79 0.79 92 1011.8
20260904011455 19 314 0.0 0.0 0.00 0.79 0.79 92 1011.8
20260904011416 19 314 0.0 0.0 0.00 0.79 0.79 92 1011.8
20260904011246 19 314 0.0 0.0 0.00 0.79 0.79 92 1011.7
20260904011201 19 314 0.0 0.0 0.00 0.79 0.79 92 1011.8
20260904011031 19 314 0.0 0.0 0.00 0.79 0.79 92 1011.7
20260904010931 19 314 0.0 0.0 0.00 0.79 0.79 92 1011.6
20260904010836 19 314 0.0 0.0 0.00 0.79 0.79 92 1011.6
20260904010728 19 314 0.0 0.0 0.00 0.79 0.79 92 1011.6
20260904010540 19 314 0.0 0.0 0.00 0.79 0.79 92 1011.7
20260904010455 19 314 0.0 0.0 0.00 0.79 0.79 92 1011.7
20260904010304 19 314 0.0 0.0 0.00 0.79 0.79 92 1011.7
20260904010226 19 314 0.0 0.0 0.00 0.79 0.79 92 1011.7
20260904010029 19 314 0.0 0.0 0.00 0.79 0.79 92 1011.7
20260904005950 19 314 0.0 0.0 0.00 0.79 0.79 92 1011.7
20260904005853 19 314 0.0 0.0 0.00 0.79 0.79 92 1011.6
20260904005733 19 314 0.0 0.0 0.00 0.79 0.79 92 1011.6
20260904005623 19 314 0.0 0.0 0.00 0.79 0.79 92 1011.7
20260904005546 19 314 0.0 0.0 0.00 0.79 0.79 92 1011.7
20260904005409 19 314 0.0 0.0 0.00 0.79 0.79 92 1011.6
20260904005331 19 314 0.0 0.0 0.00 0.79 0.79 92 1011.6
20260904005210 19 314 0.0 0.0 0.00 0.79 0.79 92 1011.5
20260904005126 19 314 0.0 0.0 0.00 0.79 0.79 92 1011.5
20260904004956 19 314 0.0 0.0 0.00 0.79 0.79 92 1011.5
20260904004917 19 314 0.0 0.0 0.00 0.79 0.79 92 1011.4
20260904004747 19 314 0.0 0.0 0.00 0.79 0.79 92 1011.5
20260904004623 19 314 0.0 0.0 0.00 0.79 0.79 91 1011.4
20260904004528 19 314 0.0 0.0 0.00 0.79 0.79 91 1011.4
20260904004450 19 314 0.0 0.0 0.00 0.79 0.79 91 1011.4
20260904004412 19 314 0.0 0.0 0.00 0.79 0.79 92 1011.4
20260904004315 19 314 0.0 0.0 0.00 0.79 0.79 92 1011.4
20260904004237 19 314 0.0 0.0 0.00 0.79 0.79 92 1011.4
20260904004108 20 314 0.0 0.0 0.00 0.79 0.79 92 1011.4
20260904004024 19 314 0.0 0.0 0.00 0.79 0.79 91 1011.4
20260904003853 20 314 0.0 0.0 0.00 0.79 0.79 91 1011.4
20260904003815 20 314 0.0 0.0 0.00 0.79 0.79 91 1011.4
20260904003648 20 314 0.0 0.0 0.00 0.79 0.79 91 1011.3
20260904003524 20 314 0.0 0.0 0.00 0.79 0.79 91 1011.4
20260904003431 20 314 0.0 0.0 0.00 0.79 0.79 91 1011.3
20260904003352 20 314 0.0 0.0 0.00 0.79 0.79 91 1011.3
20260904003221 20 314 0.0 0.0 0.00 0.79 0.79 91 1011.2
20260904003136 20 314 0.0 0.0 0.00 0.79 0.79 91 1011.2
20260904003005 20 314 0.0 0.0 0.00 0.79 0.79 91 1011.3
20260904002928 20 314 0.0 0.0 0.00 0.79 0.79 91 1011.3
20260904002729 20 314 0.0 0.0 0.00 0.79 0.79 91 1011.4
20260904002652 20 314 0.0 0.0 0.00 0.79 0.79 91 1011.3
20260904002537 20 314 0.0 0.0 0.00 0.79 0.79 91 1011.3
20260904002437 20 314 0.0 0.0 0.00 0.79 0.79 91 1011.3
20260904002302 20 314 0.0 0.0 0.00 0.79 0.79 91 1011.2
20260904002227 20 314 0.0 0.0 0.00 0.79 0.79 91 1011.2
20260904002031 20 314 0.0 0.0 0.00 0.79 0.79 91 1011.0
20260904001943 20 314 0.0 0.0 0.00 0.79 0.79 91 1011.0
20260904001826 20 314 0.0 0.0 0.00 0.79 0.79 91 1011.0
20260904001735 20 314 0.0 0.0 0.00 0.79 0.79 91 1011.0
20260904001618 20 314 0.0 0.0 0.00 0.79 0.79 91 1011.0
20260904001540 20 314 0.0 0.0 0.00 0.79 0.79 91 1011.0
20260904001409 20 314 0.0 0.0 0.00 0.79 0.79 91 1011.0
20260904001324 20 314 0.0 0.0 0.00 0.79 0.79 91 1011.0
20260904001140 20 314 0.0 0.0 0.00 0.79 0.79 91 1010.9
20260904001035 20 314 0.0 0.0 0.00 0.79 0.79 90 1010.9
20260904000937 20 314 0.0 0.0 0.00 0.79 0.79 90 1010.9
20260904000901 20 314 0.0 0.0 0.00 0.79 0.79 90 1010.9
20260904000801 20 314 0.0 0.0 0.00 0.79 0.79 90 1010.8
20260904000626 20 314 0.0 0.0 0.00 0.79 0.79 90 1010.8
20260904000546 20 314 0.0 0.0 0.00 0.79 0.79 90 1010.8
20260904000418 20 314 0.0 0.0 0.00 0.79 0.79 90 1010.7
20260904000334 20 314 0.0 0.0 0.00 0.79 0.79 90 1010.7
20260904000147 20 314 0.0 0.0 0.00 0.79 0.79 90 1010.7
20260904000043 20 314 0.0 0.0 0.00 0.79 0.79 90 1010.7
20260903235852 20 314 0.0 0.0 0.00 0.79 0.79 90 1010.6
20260903235752 20 314 0.0 0.0 0.00 0.79 0.79 90 1010.6
20260903235714 20 314 0.0 0.0 0.00 0.79 0.79 90 1010.6
20260903235556 20 314 0.0 0.0 0.00 0.79 0.79 90 1010.6
20260903235519 20 314 0.0 0.0 0.00 0.79 0.79 89 1010.6
20260903235324 20 314 0.0 0.0 0.00 0.79 0.79 89 1010.6
20260903235224 20 314 0.0 0.0 0.00 0.79 0.79 89 1010.6
20260903235130 20 314 0.0 0.0 0.00 0.79 0.79 89 1010.6
20260903235051 20 314 0.0 0.0 0.00 0.79 0.79 89 1010.6
20260903235017 20 314 0.0 0.0 0.00 0.79 0.79 89 1010.7
20260903234858 20 314 0.0 0.0 0.00 0.79 0.79 89 1010.7
20260903234759 20 314 0.0 0.0 0.00 0.79 0.79 89 1010.7
20260903234628 20 314 0.0 0.0 0.00 0.79 0.79 89 1010.6
20260903234523 20 314 0.0 0.0 0.00 0.79 0.79 89 1010.6
20260903234333 20 314 0.0 0.0 0.00 0.79 0.79 88 1010.5
20260903234247 20 314 0.0 0.0 0.00 0.79 0.79 88 1010.6
20260903234116 20 314 0.0 0.0 0.00 0.79 0.79 88 1010.6
20260903234016 20 314 0.0 0.0 0.00 0.79 0.79 88 1010.6
20260903233847 21 314 0.0 0.0 0.00 0.79 0.79 88 1010.6
20260903233740 21 314 0.0 0.0 0.00 0.79 0.79 88 1010.6
20260903233705 21 314 0.0 0.0 0.00 0.79 0.79 88 1010.6
20260903233609 21 314 0.0 0.0 0.00 0.79 0.79 88 1010.6
20260903233531 21 314 0.0 0.0 0.00 0.79 0.79 87 1010.6
20260903233336 21 314 0.0 0.0 0.00 0.79 0.79 87 1010.6
20260903233237 21 314 0.0 0.0 0.00 0.79 0.79 87 1010.6
20260903233142 21 314 0.0 0.0 0.00 0.79 0.79 87 1010.5
20260903233045 21 314 0.0 0.0 0.00 0.79 0.79 88 1010.6
20260903232926 21 314 0.0 0.0 0.00 0.79 0.79 88 1010.6
20260903232848 21 314 0.0 0.0 0.00 0.79 0.79 87 1010.6
20260903232808 21 314 0.0 0.0 0.00 0.79 0.79 87 1010.6
20260903232716 21 314 0.0 0.0 0.00 0.79 0.79 87 1010.5
20260903232636 21 314 0.0 0.0 0.00 0.79 0.79 87 1010.5
20260903232506 21 314 0.0 0.0 0.00 0.79 0.79 86 1010.4
20260903232421 21 314 0.0 0.0 0.00 0.79 0.79 86 1010.4
20260903232251 21 314 0.0 0.0 0.00 0.79 0.79 86 1010.3
20260903232212 21 314 0.0 0.0 0.00 0.79 0.79 86 1010.3
20260903232041 21 314 0.0 0.0 0.00 0.79 0.79 86 1010.3
20260903231934 21 314 0.0 0.0 0.00 0.79 0.79 86 1010.3
20260903231804 21 314 0.0 0.0 0.00 0.79 0.79 86 1010.2
20260903231726 21 314 0.0 0.0 0.00 0.79 0.79 85 1010.2
20260903231528 22 314 0.0 0.0 0.00 0.79 0.79 86 1010.2
20260903231450 22 314 0.0 1.6 0.00 0.79 0.79 86 1010.3
20260903231340 22 314 0.0 1.6 0.00 0.79 0.79 86 1010.3
20260903231303 22 314 0.0 1.6 0.00 0.79 0.79 86 1010.2
20260903231155 22 314 0.0 1.6 0.00 0.79 0.79 86 1010.3
20260903231117 22 314 0.0 1.6 0.00 0.79 0.79 86 1010.3
20260903231039 22 217 0.0 1.6 0.00 0.79 0.79 85 1010.3
20260903230842 22 217 0.0 1.6 0.00 0.79 0.79 84 1010.3
20260903230804 22 217 0.0 1.6 0.00 0.79 0.79 84 1010.3
20260903230707 22 217 0.0 1.6 0.00 0.79 0.79 85 1010.2
20260903230628 22 217 0.0 1.6 0.00 0.79 0.79 84 1010.2
20260903230440 22 217 0.0 3.2 0.00 0.79 0.79 84 1010.3
20260903230338 22 217 0.0 3.2 0.00 0.79 0.79 85 1010.3
20260903230223 22 217 0.0 3.2 0.00 0.79 0.79 85 1010.4
20260903230145 22 217 0.0 3.2 0.00 0.79 0.79 85 1010.4
20260903230014 22 217 0.0 3.2 0.00 0.79 0.79 84 1010.4
20260903225929 22 217 0.0 3.2 0.00 0.79 0.79 83 1010.4
20260903225759 23 217 1.6 3.2 0.00 0.79 0.79 83 1010.3
20260903225723 23 217 1.6 3.2 0.00 0.79 0.79 83 1010.3
20260903225637 23 217 0.0 8.0 0.00 0.79 0.79 83 1010.2
20260903225426 23 217 0.0 8.0 0.00 0.79 0.79 85 1010.3
20260903225318 23 217 0.0 8.0 0.00 0.79 0.79 85 1010.3
20260903225152 23 217 1.6 8.0 0.00 0.79 0.79 84 1010.3
20260903225115 23 188 1.6 8.0 0.00 0.79 0.79 83 1010.2
20260903224945 23 156 1.6 8.0 0.00 0.79 0.79 83 1010.1
20260903224839 23 156 3.2 8.0 0.00 0.79 0.79 83 1010.0
20260903224724 23 156 3.2 8.0 0.00 0.79 0.79 83 1010.0
20260903224646 23 189 3.2 4.8 0.00 0.79 0.79 83 1010.0
20260903224516 23 245 1.6 3.2 0.00 0.79 0.79 83 1010.2
20260903224431 23 281 1.6 1.6 0.00 0.79 0.79 82 1010.2
20260903224240 24 281 0.0 1.6 0.00 0.79 0.79 82 1010.3
20260903224140 24 281 1.6 1.6 0.00 0.79 0.79 82 1010.3
20260903224025 24 281 0.0 1.6 0.00 0.79 0.79 82 1010.4
20260903223946 24 281 0.0 1.6 0.00 0.79 0.79 82 1010.4
20260903223816 24 281 0.0 3.2 0.00 0.79 0.79 82 1010.3
20260903223730 24 281 0.0 3.2 0.00 0.79 0.79 82 1010.3
20260903223631 24 281 0.0 3.2 0.00 0.79 0.79 82 1010.3
20260903223501 25 281 0.0 3.2 0.00 0.79 0.79 80 1010.4
20260903223417 25 281 0.0 3.2 0.00 0.79 0.79 81 1010.4
20260903223235 25 281 1.6 4.8 0.00 0.79 0.79 78 1010.4
20260903223141 25 281 1.6 4.8 0.00 0.79 0.79 79 1010.4
20260903222824 25 177 0.0 4.8 0.00 0.79 0.79 78 1010.2
20260903222725 25 177 1.6 4.8 0.00 0.79 0.79 78 1010.1
20260903222629 25 177 1.6 4.8 0.00 0.79 0.79 78 1010.1
20260903222551 25 177 1.6 4.8 0.00 0.79 0.79 78 1010.2
20260903222420 25 251 1.6 4.8 0.00 0.79 0.79 79 1010.2
20260903222334 25 251 3.2 4.8 0.00 0.79 0.79 79 1010.2
20260903222144 25 249 3.2 4.8 0.00 0.79 0.79 76 1010.3
20260903222024 25 151 3.2 4.8 0.00 0.79 0.79 79 1010.3
20260903221929 25 139 3.2 4.8 0.00 0.79 0.79 79 1010.3
20260903221849 25 107 1.6 4.8 0.00 0.79 0.79 79 1010.3
20260903221719 25 61 1.6 3.2 0.00 0.79 0.79 79 1010.4
20260903221634 25 22 0.0 3.2 0.00 0.79 0.79 79 1010.4
20260903221504 25 319 0.0 3.2 0.00 0.79 0.79 77 1010.4
20260903221425 25 319 1.6 3.2 0.00 0.79 0.79 77 1010.4
20260903221227 25 319 0.0 4.8 0.00 0.79 0.79 77 1010.3
20260903221148 25 319 0.0 4.8 0.00 0.79 0.79 76 1010.3
20260903221033 25 319 0.0 4.8 0.00 0.79 0.79 76 1010.3
20260903220958 25 319 0.0 4.8 0.00 0.79 0.79 77 1010.3
20260903220921 26 319 0.0 4.8 0.00 0.79 0.79 77 1010.3
20260903220803 26 319 0.0 4.8 0.00 0.79 0.79 77 1010.4
20260903220725 26 319 1.6 4.8 0.00 0.79 0.79 77 1010.4
20260903220529 26 319 3.2 4.8 0.00 0.79 0.79 77 1010.4
20260903220430 26 319 3.2 4.8 0.00 0.79 0.79 77 1010.5
20260903220333 26 308 3.2 4.8 0.00 0.79 0.79 77 1010.4
20260903220233 26 309 3.2 4.8 0.00 0.79 0.79 77 1010.4
20260903220019 26 288 0.0 0.0 0.00 0.79 0.79 75 1010.3
20260903215832 26 288 0.0 0.0 0.00 0.79 0.79 76 1010.2
20260903215745 26 288 0.0 0.0 0.00 0.79 0.79 76 1010.3
20260903215615 26 288 0.0 0.0 0.00 0.79 0.79 76 1010.2
20260903215537 26 287 0.0 3.2 0.00 0.79 0.79 76 1010.2
20260903215340 26 243 0.0 3.2 0.00 0.79 0.79 75 1010.3
20260903215242 26 243 0.0 3.2 0.00 0.79 0.79 74 1010.3
20260903215126 26 243 0.0 6.4 0.00 0.79 0.79 74 1010.4
20260903215049 26 243 0.0 6.4 0.00 0.79 0.79 74 1010.4
20260903215013 26 243 0.0 6.4 0.00 0.79 0.79 74 1010.4
20260903214854 26 243 0.0 6.4 0.00 0.79 0.79 73 1010.4
20260903214815 26 243 1.6 6.4 0.00 0.79 0.79 71 1010.5
20260903214627 26 244 0.0 6.4 0.00 0.79 0.79 74 1010.5
20260903214521 26 252 1.6 6.4 0.00 0.79 0.79 74 1010.5
20260903214331 26 252 1.6 6.4 0.00 0.79 0.79 74 1010.5
20260903214246 26 198 1.6 6.4 0.00 0.79 0.79 74 1010.5
20260903214055 26 223 3.2 6.4 0.00 0.79 0.79 72 1010.4
20260903214016 26 221 3.2 6.4 0.00 0.79 0.79 73 1010.3
20260903213842 26 236 1.6 6.4 0.00 0.79 0.79 74 1010.3
20260903213742 26 214 1.6 4.8 0.00 0.79 0.79 73 1010.2
20260903213626 26 214 1.6 6.4 0.00 0.79 0.79 73 1010.2
20260903213547 26 214 1.6 6.4 0.00 0.79 0.79 72 1010.1
20260903213454 26 227 1.6 6.4 0.00 0.79 0.79 72 1010.1
20260903213336 26 229 1.6 6.4 0.00 0.79 0.79 71 1010.0
20260903213258 26 215 1.6 8.0 0.00 0.79 0.79 72 1010.1
20260903213141 26 204 3.2 14.5 0.00 0.79 0.79 71 1010.1
20260903213102 26 204 3.2 14.5 0.00 0.79 0.79 71 1010.1
20260903213025 26 187 3.2 14.5 0.00 0.79 0.79 71 1010.1
20260903212907 26 215 4.8 14.5 0.00 0.79 0.79 71 1010.1
20260903212829 26 193 4.8 14.5 0.00 0.79 0.79 70 1010.1
20260903212658 26 189 3.2 14.5 0.00 0.79 0.79 70 1010.2
20260903212614 26 219 3.2 14.5 0.00 0.79 0.79 70 1010.3
20260903212445 27 231 6.4 16.1 0.00 0.79 0.79 70 1010.3
20260903212344 27 178 6.4 16.1 0.00 0.79 0.79 70 1010.4
20260903212259 27 148 3.2 16.1 0.00 0.79 0.79 70 1010.4
20260903212142 27 219 4.8 16.1 0.00 0.79 0.79 71 1010.4
20260903212104 27 198 4.8 16.1 0.00 0.79 0.79 69 1010.4
20260903211913 27 186 4.8 16.1 0.00 0.79 0.79 71 1010.3
20260903211829 27 162 6.4 16.1 0.00 0.79 0.79 69 1010.3
20260903211700 27 200 9.7 16.1 0.00 0.79 0.79 68 1010.3
20260903211622 27 227 8.0 16.1 0.00 0.79 0.79 69 1010.3
20260903211442 27 223 8.0 14.5 0.00 0.79 0.79 69 1010.3
20260903211403 27 212 8.0 14.5 0.00 0.79 0.79 69 1010.2
20260903211207 27 194 6.4 14.5 0.00 0.79 0.79 70 1010.2
20260903211140 27 194 6.4 14.5 0.00 0.79 0.79 70 1010.2
20260903211009 27 192 6.4 14.5 0.00 0.79 0.79 69 1010.2
20260903210912 27 161 6.4 14.5 0.00 0.79 0.79 69 1010.2
20260903210755 27 178 6.4 14.5 0.00 0.79 0.79 68 1010.2
20260903210716 27 173 4.8 14.5 0.00 0.79 0.79 68 1010.3
20260903210546 27 168 6.4 14.5 0.00 0.79 0.79 69 1010.2
20260903210441 27 123 8.0 14.5 0.00 0.79 0.79 67 1010.2
20260903210403 27 157 8.0 14.5 0.00 0.79 0.79 67 1010.3
20260903210317 27 200 9.7 14.5 0.00 0.79 0.79 66 1010.2
20260903210218 27 147 9.7 14.5 0.00 0.79 0.79 66 1010.2
20260903210048 27 184 4.8 12.9 0.00 0.79 0.79 69 1010.2
20260903205942 27 166 3.2 12.9 0.00 0.79 0.79 68 1010.1
20260903205915 27 223 3.2 12.9 0.00 0.79 0.79 69 1010.2
20260903205821 27 221 1.6 12.9 0.00 0.79 0.79 68 1010.2
20260903205734 27 164 3.2 12.9 0.00 0.79 0.79 67 1010.2
20260903205524 27 178 6.4 12.9 0.00 0.79 0.79 67 1010.2
20260903205437 27 166 6.4 12.9 0.00 0.79 0.79 67 1010.2
20260903205307 27 188 4.8 14.5 0.00 0.79 0.79 67 1010.2
20260903205219 27 165 3.2 14.5 0.00 0.79 0.79 69 1010.2
20260903205024 27 202 6.4 14.5 0.00 0.79 0.79 68 1010.2
20260903204937 27 157 6.4 14.5 0.00 0.79 0.79 68 1010.2
20260903204839 27 175 3.2 14.5 0.00 0.79 0.79 69 1010.2
20260903204808 27 271 3.2 14.5 0.00 0.79 0.79 68 1010.2
20260903204708 27 219 4.8 14.5 0.00 0.79 0.79 68 1010.2
20260903204516 27 215 9.7 14.5 0.00 0.79 0.79 67 1010.2
20260903204428 27 239 9.7 14.5 0.00 0.79 0.79 68 1010.2
20260903204258 27 221 8.0 14.5 0.00 0.79 0.79 68 1010.2
20260903204221 27 171 8.0 14.5 0.00 0.79 0.79 67 1010.1
20260903204025 27 201 3.2 12.9 0.00 0.79 0.79 68 1010.1
20260903203946 27 190 3.2 12.9 0.00 0.79 0.79 69 1010.1
20260903203849 27 215 4.8 12.9 0.00 0.79 0.79 69 1010.1
20260903203730 27 192 6.4 12.9 0.00 0.79 0.79 69 1010.2
20260903203634 27 142 6.4 12.9 0.00 0.79 0.79 68 1010.2
20260903203540 27 167 6.4 16.1 0.00 0.79 0.79 68 1010.2
20260903203504 27 202 6.4 16.1 0.00 0.79 0.79 68 1010.2
20260903203407 27 200 6.4 16.1 0.00 0.79 0.79 68 1010.2
20260903203329 27 191 4.8 16.1 0.00 0.79 0.79 68 1010.2
20260903203158 27 153 3.2 16.1 0.00 0.79 0.79 69 1010.1
20260903203115 27 115 4.8 16.1 0.00 0.79 0.79 71 1010.1
20260903202924 27 128 9.7 16.1 0.00 0.79 0.79 69 1010.1
20260903202818 27 192 8.0 16.1 0.00 0.79 0.79 68 1010.1
20260903202750 27 166 6.4 16.1 0.00 0.79 0.79 69 1010.2
20260903202654 27 215 4.8 16.1 0.00 0.79 0.79 71 1010.1
20260903202620 27 178 6.4 16.1 0.00 0.79 0.79 71 1010.1
20260903202425 27 185 6.4 16.1 0.00 0.79 0.79 69 1010.1
20260903202326 27 159 8.0 16.1 0.00 0.79 0.79 71 1010.2
20260903202229 27 132 9.7 16.1 0.00 0.79 0.79 71 1010.2
20260903202130 27 136 8.0 12.9 0.00 0.79 0.79 71 1010.2
20260903202054 27 151 6.4 11.3 0.00 0.79 0.79 69 1010.1
20260903201936 27 151 6.4 11.3 0.00 0.79 0.79 70 1010.1
20260903201858 27 136 6.4 11.3 0.00 0.79 0.79 69 1010.2
20260903201750 27 169 3.2 12.9 0.00 0.79 0.79 70 1010.2
20260903201713 27 198 4.8 12.9 0.00 0.79 0.79 69 1010.2
20260903201636 27 200 3.2 12.9 0.00 0.79 0.79 72 1010.2
20260903201437 27 138 4.8 12.9 0.00 0.79 0.79 71 1010.2
20260903201340 27 231 4.8 14.5 0.00 0.79 0.79 70 1010.3
20260903201225 27 205 6.4 14.5 0.00 0.79 0.79 69 1010.3
20260903201146 27 213 6.4 14.5 0.00 0.79 0.79 71 1010.3
20260903201043 27 180 6.4 14.5 0.00 0.79 0.79 70 1010.3
20260903201003 27 235 6.4 14.5 0.00 0.79 0.79 71 1010.2
20260903200823 27 171 8.0 19.3 0.00 0.79 0.79 71 1010.2
20260903200727 27 180 8.0 19.3 0.00 0.79 0.79 69 1010.2
20260903200626 27 147 8.0 19.3 0.00 0.79 0.79 70 1010.2
20260903200456 27 217 4.8 19.3 0.00 0.79 0.79 70 1010.3
20260903200420 27 222 6.4 19.3 0.00 0.79 0.79 70 1010.3
20260903200240 27 175 8.0 19.3 0.00 0.79 0.79 69 1010.3
20260903200031 27 197 9.7 19.3 0.00 0.79 0.79 68 1010.3
20260903195925 27 220 6.4 14.5 0.00 0.79 0.79 69 1010.2
20260903195848 27 224 6.4 12.9 0.00 0.79 0.79 70 1010.3
20260903195733 27 180 4.8 12.9 0.00 0.79 0.79 70 1010.3
20260903195700 27 198 6.4 12.9 0.00 0.79 0.79 71 1010.3
20260903195625 27 205 6.4 12.9 0.00 0.79 0.79 71 1010.3
20260903195437 27 208 4.8 12.9 0.00 0.79 0.79 71 1010.3
20260903195331 27 188 3.2 12.9 0.00 0.79 0.79 70 1010.2
20260903195224 27 126 4.8 12.9 0.00 0.79 0.79 69 1010.2
20260903195148 27 153 6.4 12.9 0.00 0.79 0.79 68 1010.2
20260903195110 27 137 8.0 12.9 0.00 0.79 0.79 69 1010.3
20260903195016 27 138 6.4 12.9 0.00 0.79 0.79 69 1010.3
20260903194937 27 157 4.8 12.9 0.00 0.79 0.79 69 1010.3
20260903194807 27 157 6.4 12.9 0.00 0.79 0.79 71 1010.3
20260903194712 27 138 6.4 12.9 0.00 0.79 0.79 70 1010.3
20260903194516 27 130 4.8 12.9 0.00 0.79 0.79 72 1010.3
20260903194442 27 162 6.4 12.9 0.00 0.79 0.79 70 1010.3
20260903194312 27 148 4.8 16.1 0.00 0.79 0.79 71 1010.4
20260903194232 27 153 4.8 16.1 0.00 0.79 0.79 72 1010.4
20260903194035 27 164 6.4 16.1 0.00 0.79 0.79 71 1010.4
20260903193956 27 163 8.0 16.1 0.00 0.79 0.79 71 1010.4
20260903193900 27 128 6.4 16.1 0.00 0.79 0.79 72 1010.4
20260903193822 27 119 8.0 16.1 0.00 0.79 0.79 73 1010.4
20260903193744 26 164 8.0 16.1 0.00 0.79 0.79 73 1010.4
20260903193619 26 200 11.3 16.1 0.00 0.79 0.79 72 1010.5
20260903193532 26 171 11.3 16.1 0.00 0.79 0.79 70 1010.5
20260903193344 27 167 8.0 16.1 0.00 0.79 0.79 71 1010.5
20260903193239 27 167 4.8 16.1 0.00 0.79 0.79 73 1010.5
20260903193124 26 179 6.4 16.1 0.00 0.79 0.79 71 1010.5
20260903193044 26 184 9.7 16.1 0.00 0.79 0.79 71 1010.5
20260903193006 26 202 11.3 16.1 0.00 0.79 0.79 71 1010.5
20260903192840 26 207 6.4 17.7 0.00 0.79 0.79 73 1010.5
20260903192740 26 184 4.8 17.7 0.00 0.79 0.79 73 1010.6
20260903192627 26 127 8.0 17.7 0.00 0.79 0.79 72 1010.5
20260903192548 26 109 9.7 17.7 0.00 0.79 0.79 72 1010.6
20260903192442 26 205 9.7 17.7 0.00 0.79 0.79 71 1010.5
20260903192405 26 139 9.7 17.7 0.00 0.79 0.79 73 1010.5
20260903192240 26 131 11.3 17.7 0.00 0.79 0.79 71 1010.5
20260903192159 26 155 9.7 17.7 0.00 0.79 0.79 72 1010.5
20260903192042 26 161 8.0 16.1 0.00 0.79 0.79 71 1010.5
20260903191942 26 180 8.0 17.7 0.00 0.79 0.79 71 1010.5
20260903191813 26 154 9.7 17.7 0.00 0.79 0.79 72 1010.5
20260903191726 26 138 11.3 20.9 0.00 0.79 0.79 72 1010.5
20260903191541 26 159 9.7 20.9 0.00 0.79 0.79 72 1010.5
20260903191435 26 191 8.0 20.9 0.00 0.79 0.79 72 1010.5
20260903191358 26 108 6.4 20.9 0.00 0.79 0.79 74 1010.5
20260903191317 26 145 8.0 20.9 0.00 0.79 0.79 73 1010.5
20260903191231 26 150 9.7 20.9 0.00 0.79 0.79 72 1010.5
20260903191014 26 175 11.3 20.9 0.00 0.79 0.79 72 1010.6
20260903190926 26 134 12.9 20.9 0.00 0.79 0.79 72 1010.6
20260903190829 26 137 11.3 20.9 0.00 0.79 0.79 73 1010.6
20260903190753 26 157 11.3 20.9 0.00 0.79 0.79 73 1010.6
20260903190713 26 150 9.7 17.7 0.00 0.79 0.79 72 1010.6
20260903190618 27 119 8.0 17.7 0.00 0.79 0.79 73 1010.6
20260903190540 26 169 8.0 17.7 0.00 0.79 0.79 73 1010.6
20260903190409 27 190 9.7 22.5 0.00 0.79 0.79 72 1010.6
20260903190242 26 184 4.8 22.5 0.00 0.79 0.79 74 1010.7
20260903190125 26 161 6.4 22.5 0.00 0.79 0.79 72 1010.6
20260903190046 26 195 8.0 22.5 0.00 0.79 0.79 72 1010.6
20260903185918 26 186 9.7 22.5 0.00 0.79 0.79 74 1010.6
20260903185833 26 177 11.3 22.5 0.00 0.79 0.79 72 1010.6
20260903185702 26 127 9.7 22.5 0.00 0.79 0.79 73 1010.6
20260903185605 26 171 9.7 22.5 0.00 0.79 0.79 72 1010.7
20260903185429 26 136 4.8 17.7 0.00 0.79 0.79 72 1010.7
20260903185351 26 149 4.8 17.7 0.00 0.79 0.79 73 1010.7
20260903185313 26 184 4.8 17.7 0.00 0.79 0.79 73 1010.7
20260903185217 26 211 9.7 17.7 0.00 0.79 0.79 71 1010.7
20260903185138 26 231 9.7 17.7 0.00 0.79 0.79 71 1010.7
20260903185009 26 157 9.7 17.7 0.00 0.79 0.79 71 1010.8
20260903184902 26 159 8.0 17.7 0.00 0.79 0.79 70 1010.8
20260903184730 26 234 8.0 17.7 0.00 0.79 0.79 72 1010.8
20260903184630 26 194 8.0 17.7 0.00 0.79 0.79 72 1010.8
20260903184433 26 125 9.7 17.7 0.00 0.79 0.79 73 1010.8
20260903184358 26 150 9.7 17.7 0.00 0.79 0.79 73 1010.9
20260903184223 26 153 11.3 17.7 0.00 0.79 0.79 71 1010.9
20260903184137 26 187 11.3 17.7 0.00 0.79 0.79 72 1010.8
20260903184007 26 159 11.3 17.7 0.00 0.79 0.79 71 1010.8
20260903183929 26 186 9.7 16.1 0.00 0.79 0.79 71 1010.8
20260903183732 26 145 11.3 17.7 0.00 0.79 0.79 72 1010.9
20260903183656 26 211 9.7 17.7 0.00 0.79 0.79 72 1010.9
20260903183541 26 199 9.7 17.7 0.00 0.79 0.79 73 1011.0
20260903183504 26 191 11.3 17.7 0.00 0.79 0.79 73 1011.0
20260903183316 26 144 9.7 17.7 0.00 0.79 0.79 71 1010.9
20260903183232 26 145 9.7 17.7 0.00 0.79 0.79 72 1010.9
20260903183102 26 174 9.7 17.7 0.00 0.79 0.79 74 1010.9
20260903183024 26 224 11.3 17.7 0.00 0.79 0.79 73 1010.9
20260903182848 26 153 12.9 17.7 0.00 0.79 0.79 70 1010.9
20260903182820 26 146 12.9 17.7 0.00 0.79 0.79 72 1010.9
20260903182633 26 241 6.4 16.1 0.00 0.79 0.79 73 1010.9
20260903182526 26 232 8.0 16.1 0.00 0.79 0.79 74 1011.0
20260903182448 26 190 8.0 16.1 0.00 0.79 0.79 73 1011.0
20260903182326 26 192 9.7 16.1 0.00 0.79 0.79 73 1011.0
20260903182239 26 210 9.7 16.1 0.00 0.79 0.79 73 1011.0
20260903182030 26 201 6.4 17.7 0.00 0.79 0.79 74 1011.0
20260903181925 26 142 9.7 17.7 0.00 0.79 0.79 74 1011.1
20260903181849 26 229 9.7 17.7 0.00 0.79 0.79 73 1011.1
20260903181752 26 184 12.9 17.7 0.00 0.79 0.79 73 1011.0
20260903181714 26 171 11.3 17.7 0.00 0.79 0.79 73 1011.0
20260903181544 26 173 6.4 17.7 0.00 0.79 0.79 74 1011.0
20260903181439 26 96 6.4 17.7 0.00 0.79 0.79 76 1011.1
20260903181326 26 175 9.7 17.7 0.00 0.79 0.79 75 1011.0
20260903181247 26 169 9.7 19.3 0.00 0.79 0.79 74 1011.1
20260903181116 26 144 6.4 16.1 0.00 0.79 0.79 76 1011.1
20260903181031 26 140 6.4 16.1 0.00 0.79 0.79 76 1011.1
20260903180840 26 211 9.7 16.1 0.00 0.79 0.79 75 1011.1
20260903180752 26 167 9.7 16.1 0.00 0.79 0.79 74 1011.1
20260903180636 26 205 9.7 16.1 0.00 0.79 0.79 75 1011.2
20260903180557 26 202 9.7 17.7 0.00 0.79 0.79 75 1011.1
20260903180519 26 178 9.7 17.7 0.00 0.79 0.79 76 1011.2
20260903180421 25 179 11.3 17.7 0.00 0.79 0.79 75 1011.2
20260903180320 25 188 11.3 17.7 0.00 0.79 0.79 75 1011.2
20260903180152 25 197 9.7 17.7 0.00 0.79 0.79 75 1011.1
20260903180048 25 167 9.7 17.7 0.00 0.79 0.79 76 1011.1
20260903175918 25 224 8.0 17.7 0.00 0.79 0.79 75 1011.2
20260903175839 25 203 9.7 17.7 0.00 0.79 0.79 75 1011.2
20260903175641 25 236 11.3 17.7 0.00 0.79 0.79 77 1011.2
20260903175602 25 220 11.3 16.1 0.00 0.79 0.79 77 1011.1
20260903175504 25 154 8.0 16.1 0.00 0.79 0.79 77 1011.2
20260903175404 25 157 9.7 16.1 0.00 0.79 0.79 76 1011.2
20260903175233 25 150 8.0 17.7 0.00 0.79 0.79 77 1011.2
20260903175126 25 165 4.8 16.1 0.00 0.79 0.79 78 1011.2
20260903174935 25 232 8.0 16.1 0.00 0.79 0.79 77 1011.2
20260903174834 25 183 8.0 16.1 0.00 0.79 0.79 78 1011.2
20260903174727 25 232 6.4 16.1 0.00 0.79 0.79 79 1011.1
20260903174628 25 161 9.7 16.1 0.00 0.79 0.79 78 1011.2
20260903174438 25 188 9.7 17.7 0.00 0.79 0.79 79 1011.3
20260903174331 25 175 9.7 16.1 0.00 0.79 0.79 78 1011.3
20260903174253 25 153 11.3 16.1 0.00 0.79 0.79 78 1011.3
20260903174155 25 157 9.7 16.1 0.00 0.79 0.79 77 1011.4
20260903174117 25 186 8.0 16.1 0.00 0.79 0.79 78 1011.3
20260903173946 25 182 11.3 16.1 0.00 0.79 0.79 77 1011.4
20260903173827 25 180 9.7 16.1 0.00 0.79 0.79 76 1011.4
20260903173730 25 253 9.7 14.5 0.00 0.79 0.79 77 1011.4
20260903173651 25 196 8.0 14.5 0.00 0.79 0.79 77 1011.4
20260903173521 25 183 8.0 16.1 0.00 0.79 0.79 78 1011.4
20260903173434 25 128 9.7 16.1 0.00 0.79 0.79 78 1011.4
20260903173304 25 173 8.0 16.1 0.00 0.79 0.79 79 1011.4
20260903173226 24 156 8.0 16.1 0.00 0.79 0.79 79 1011.4
20260903173031 24 157 8.0 17.7 0.00 0.79 0.79 78 1011.4
20260903172952 24 182 8.0 17.7 0.00 0.79 0.79 79 1011.4
20260903172855 24 165 8.0 17.7 0.00 0.79 0.79 80 1011.4
20260903172816 24 143 9.7 17.7 0.00 0.79 0.79 79 1011.4
20260903172651 24 153 9.7 17.7 0.00 0.79 0.79 78 1011.5
20260903172612 24 197 6.4 17.7 0.00 0.79 0.79 78 1011.5
20260903172526 24 178 4.8 17.7 0.00 0.79 0.79 80 1011.5
20260903172428 24 162 8.0 17.7 0.00 0.79 0.79 78 1011.5
20260903172327 24 211 11.3 17.7 0.00 0.79 0.79 78 1011.5
20260903172129 24 201 8.0 17.7 0.00 0.79 0.79 79 1011.5
20260903172050 24 172 6.4 17.7 0.00 0.79 0.79 78 1011.5
20260903171953 24 221 8.0 17.7 0.00 0.79 0.79 78 1011.5
20260903171830 24 188 6.4 17.7 0.00 0.79 0.79 79 1011.5
20260903171725 24 201 8.0 17.7 0.00 0.79 0.79 79 1011.5
20260903171650 24 229 9.7 17.7 0.00 0.79 0.79 79 1011.5
20260903171552 24 192 8.0 17.7 0.00 0.79 0.79 78 1011.6
20260903171514 24 217 8.0 16.1 0.00 0.79 0.79 79 1011.6
20260903171344 24 169 8.0 16.1 0.00 0.79 0.79 79 1011.5
20260903171239 24 179 9.7 16.1 0.00 0.79 0.79 79 1011.5
20260903171123 24 207 9.7 17.7 0.00 0.79 0.79 78 1011.6
20260903171044 24 190 8.0 17.7 0.00 0.79 0.79 78 1011.6
20260903170914 24 221 8.0 17.7 0.00 0.79 0.79 78 1011.6
20260903170817 24 217 8.0 17.7 0.00 0.79 0.79 79 1011.7
20260903170623 24 223 6.4 17.7 0.00 0.79 0.79 79 1011.6
20260903170536 24 219 6.4 17.7 0.00 0.79 0.79 79 1011.6
20260903170405 24 140 6.4 17.7 0.00 0.79 0.79 80 1011.6
20260903170327 24 192 6.4 17.7 0.00 0.79 0.79 78 1011.6
20260903170129 24 157 9.7 17.7 0.00 0.79 0.79 79 1011.7
20260903170051 24 173 8.0 20.9 0.00 0.79 0.79 79 1011.7
20260903165955 24 187 6.4 17.7 0.00 0.79 0.79 80 1011.7
20260903165854 24 234 8.0 17.7 0.00 0.79 0.79 79 1011.7
20260903165703 24 229 8.0 17.7 0.00 0.79 0.79 79 1011.7
20260903165617 24 244 8.0 17.7 0.00 0.79 0.79 79 1011.7
20260903165428 24 163 9.7 17.7 0.00 0.79 0.79 78 1011.7
20260903165347 24 164 9.7 19.3 0.00 0.79 0.79 78 1011.7
20260903165218 24 153 6.4 19.3 0.00 0.79 0.79 79 1011.6
20260903165140 24 162 6.4 19.3 0.00 0.79 0.79 79 1011.6
20260903164923 24 166 11.3 22.5 0.00 0.79 0.79 78 1011.6
20260903164847 24 140 11.3 22.5 0.00 0.79 0.79 78 1011.6
20260903164748 24 133 11.3 22.5 0.00 0.79 0.79 79 1011.7
20260903164649 24 149 11.3 22.5 0.00 0.79 0.79 79 1011.7
20260903164519 24 234 12.9 22.5 0.00 0.79 0.79 78 1011.7
20260903164432 24 178 14.5 22.5 0.00 0.79 0.79 78 1011.7
20260903164242 24 170 14.5 22.5 0.00 0.79 0.79 79 1011.6
20260903164142 23 176 11.3 22.5 0.00 0.79 0.79 80 1011.6
20260903164027 23 161 11.3 22.5 0.00 0.79 0.79 79 1011.6
20260903163949 23 188 12.9 22.5 0.00 0.79 0.79 78 1011.6
20260903163818 23 107 11.3 22.5 0.00 0.79 0.79 79 1011.6
20260903163732 23 141 11.3 22.5 0.00 0.79 0.79 80 1011.6
20260903163612 23 153 11.3 24.1 0.00 0.79 0.79 79 1011.7
20260903163535 23 196 11.3 17.7 0.00 0.79 0.79 79 1011.7
20260903163337 23 161 9.7 17.7 0.00 0.79 0.79 80 1011.7
20260903163258 23 159 11.3 17.7 0.00 0.79 0.79 81 1011.8
20260903163146 23 186 11.3 17.7 0.00 0.79 0.79 81 1011.8
20260903163106 23 171 9.7 16.1 0.00 0.79 0.79 81 1011.8
20260903162950 23 161 6.4 12.9 0.00 0.79 0.79 81 1011.8
20260903162830 23 195 6.4 11.3 0.00 0.79 0.79 81 1011.8
20260903162753 23 213 6.4 11.3 0.00 0.79 0.79 81 1011.8
20260903162708 23 159 4.8 11.3 0.00 0.79 0.79 82 1011.8
20260903162640 23 142 4.8 11.3 0.00 0.79 0.79 81 1011.8
20260903162511 23 203 6.4 12.9 0.00 0.79 0.79 82 1011.9
20260903162425 23 186 6.4 12.9 0.00 0.79 0.79 82 1011.9
20260903162236 23 136 6.4 12.9 0.00 0.79 0.79 83 1011.9
20260903162151 23 136 6.4 14.5 0.00 0.79 0.79 82 1011.8
20260903162003 23 131 6.4 14.5 0.00 0.79 0.79 81 1011.9
20260903161925 23 188 6.4 14.5 0.00 0.79 0.79 81 1011.9
20260903161729 23 157 6.4 14.5 0.00 0.79 0.79 81 1012.0
20260903161651 23 215 4.8 14.5 0.00 0.79 0.79 81 1012.0
20260903161537 23 200 6.4 16.1 0.00 0.79 0.79 81 1012.0
20260903161457 23 178 9.7 16.1 0.00 0.79 0.79 81 1012.0
20260903161359 23 144 9.7 16.1 0.00 0.79 0.79 81 1012.0
20260903161303 23 160 9.7 16.1 0.00 0.79 0.79 81 1011.9
20260903161225 23 236 9.7 16.1 0.00 0.79 0.79 80 1011.9
20260903161054 23 195 8.0 16.1 0.00 0.79 0.79 80 1011.9
20260903160933 23 137 6.4 17.7 0.00 0.79 0.79 81 1012.0
20260903160855 23 144 8.0 17.7 0.00 0.79 0.79 80 1012.0
20260903160758 23 232 9.7 17.7 0.00 0.79 0.79 81 1011.9
20260903160720 23 198 9.7 17.7 0.00 0.79 0.79 80 1011.9
20260903160523 23 132 8.0 17.7 0.00 0.79 0.79 81 1012.0
20260903160423 23 153 9.7 17.7 0.00 0.79 0.79 81 1012.0
20260903160329 23 163 11.3 17.7 0.00 0.79 0.79 80 1012.0
20260903160250 23 168 11.3 17.7 0.00 0.79 0.79 82 1012.0
20260903160120 23 180 9.7 17.7 0.00 0.79 0.79 81 1012.0
20260903160033 23 100 9.7 16.1 0.00 0.79 0.79 81 1012.0
20260903155903 23 150 12.9 16.1 0.00 0.79 0.79 81 1012.0
20260903155828 23 222 11.3 19.3 0.00 0.79 0.79 81 1012.0
20260903155633 23 177 8.0 19.3 0.00 0.79 0.79 81 1012.1
20260903155534 23 172 9.7 19.3 0.00 0.79 0.79 80 1012.0
20260903155438 23 188 11.3 19.3 0.00 0.79 0.79 80 1012.1
20260903155340 23 215 9.7 19.3 0.00 0.79 0.79 80 1012.1
20260903155243 23 175 8.0 19.3 0.00 0.79 0.79 80 1012.1
20260903155204 23 167 9.7 19.3 0.00 0.79 0.79 80 1012.1
20260903155125 23 202 11.3 19.3 0.00 0.79 0.79 80 1012.1
20260903155009 23 223 9.7 19.3 0.00 0.79 0.79 80 1012.1
20260903154931 23 172 9.7 17.7 0.00 0.79 0.79 80 1012.1
20260903154806 23 196 12.9 19.3 0.00 0.79 0.79 78 1012.1
20260903154720 23 171 11.3 22.5 0.00 0.79 0.79 79 1012.1
20260903154550 23 182 9.7 22.5 0.00 0.79 0.79 79 1012.1
20260903154450 23 183 9.7 22.5 0.00 0.79 0.79 79 1012.1
20260903154413 23 163 8.0 22.5 0.00 0.79 0.79 80 1012.1
20260903154316 23 150 8.0 22.5 0.00 0.79 0.79 80 1012.1
20260903154237 23 180 8.0 22.5 0.00 0.79 0.79 78 1012.0
20260903154046 23 186 9.7 22.5 0.00 0.79 0.79 79 1012.1
20260903153941 23 173 14.5 22.5 0.00 0.79 0.79 78 1012.1
20260903153824 23 217 11.3 22.5 0.00 0.79 0.79 78 1012.1
20260903153745 23 196 9.7 20.9 0.00 0.79 0.79 80 1012.1
20260903153712 23 197 9.7 20.9 0.00 0.79 0.79 80 1012.1
20260903153614 23 169 8.0 20.9 0.00 0.79 0.79 81 1012.1
20260903153536 23 221 9.7 20.9 0.00 0.79 0.79 81 1012.2
20260903153344 23 153 14.5 20.9 0.00 0.79 0.79 79 1012.1
20260903153258 23 223 14.5 20.9 0.00 0.79 0.79 79 1012.1
20260903153130 23 217 11.3 17.7 0.00 0.79 0.79 79 1012.2
20260903153030 23 178 9.7 16.1 0.00 0.79 0.79 80 1012.2
20260903152901 23 212 11.3 17.7 0.00 0.79 0.79 79 1012.2
20260903152734 23 188 8.0 17.7 0.00 0.79 0.79 80 1012.1
20260903152628 23 178 9.7 16.1 0.00 0.79 0.79 80 1012.2
20260903152533 23 183 9.7 16.1 0.00 0.79 0.79 80 1012.2
20260903152446 23 184 8.0 16.1 0.00 0.79 0.79 80 1012.2
20260903152407 23 178 8.0 16.1 0.00 0.79 0.79 81 1012.2
20260903152309 23 200 9.7 19.3 0.00 0.79 0.79 81 1012.2
20260903152212 23 200 9.7 19.3 0.00 0.79 0.79 81 1012.3
20260903152114 23 142 9.7 19.3 0.00 0.79 0.79 81 1012.2
20260903151943 23 202 11.3 19.3 0.00 0.79 0.79 80 1012.3
20260903151857 23 141 8.0 19.3 0.00 0.79 0.79 81 1012.4
20260903151715 23 199 6.4 19.3 0.00 0.79 0.79 83 1012.4
20260903151615 23 182 8.0 19.3 0.00 0.79 0.79 83 1012.5
20260903151438 22 223 8.0 17.7 0.00 0.79 0.79 83 1012.5
20260903151340 22 157 8.0 17.7 0.00 0.79 0.79 83 1012.5
20260903151229 22 159 8.0 17.7 0.00 0.79 0.79 84 1012.4
20260903151150 22 142 9.7 17.7 0.00 0.79 0.79 84 1012.5
20260903151112 22 154 8.0 17.7 0.00 0.79 0.79 84 1012.5
20260903151017 22 185 9.7 17.7 0.00 0.79 0.79 84 1012.4
20260903150939 22 173 9.7 17.7 0.00 0.79 0.79 83 1012.4
20260903150819 22 157 8.0 19.3 0.00 0.79 0.79 84 1012.5
20260903150733 22 202 9.7 19.3 0.00 0.79 0.79 83 1012.5
20260903150517 22 240 9.7 19.3 0.00 0.79 0.79 84 1012.5
20260903150428 22 206 12.9 19.3 0.00 0.79 0.79 84 1012.5
20260903150336 22 197 12.9 19.3 0.00 0.79 0.79 84 1012.6
20260903150258 22 228 12.9 19.3 0.00 0.79 0.79 84 1012.6
20260903150107 21 167 9.7 19.3 0.00 0.79 0.79 84 1012.7
20260903150021 21 215 9.7 19.3 0.00 0.79 0.79 85 1012.7
20260903145851 21 178 8.0 22.5 0.00 0.79 0.79 85 1012.7
20260903145753 21 221 6.4 22.5 0.00 0.79 0.79 85 1012.7
20260903145657 21 135 8.0 22.5 0.00 0.79 0.79 85 1012.7
20260903145616 21 211 6.4 22.5 0.00 0.79 0.79 85 1012.7
20260903145428 21 221 4.8 22.5 0.00 0.79 0.79 84 1012.7
20260903145342 21 207 6.4 22.5 0.00 0.79 0.79 85 1012.6
20260903145122 21 200 12.9 17.7 0.00 0.79 0.79 84 1012.7
20260903145021 21 175 9.7 19.3 0.00 0.79 0.79 85 1012.7
20260903144909 21 145 9.7 19.3 0.00 0.79 0.79 85 1012.7
20260903144830 21 173 9.7 16.1 0.00 0.79 0.79 85 1012.7
20260903144700 21 194 8.0 16.1 0.00 0.79 0.79 86 1012.7
20260903144616 21 193 8.0 16.1 0.00 0.79 0.79 85 1012.7
20260903144424 21 148 8.0 16.1 0.00 0.79 0.79 86 1012.7
20260903144338 21 198 9.7 16.1 0.00 0.79 0.79 86 1012.7
20260903144208 21 160 9.7 17.7 0.00 0.79 0.79 85 1012.7
20260903144129 21 198 9.7 19.3 0.00 0.79 0.79 86 1012.7
20260903144011 21 171 8.0 17.7 0.00 0.79 0.79 85 1012.8
20260903143932 21 166 9.7 17.7 0.00 0.79 0.79 85 1012.8
20260903143804 21 125 6.4 17.7 0.00 0.79 0.79 86 1012.7
20260903143719 21 215 4.8 17.7 0.00 0.79 0.79 86 1012.8
20260903143552 21 201 9.7 20.9 0.00 0.79 0.79 86 1012.8
20260903143452 21 155 11.3 20.9 0.00 0.79 0.79 86 1012.8
20260903143413 21 180 9.7 20.9 0.00 0.79 0.79 86 1012.8
20260903143317 21 183 9.7 20.9 0.00 0.79 0.79 86 1012.8
20260903143238 21 209 8.0 20.9 0.00 0.79 0.79 86 1012.8
20260903143108 21 198 9.7 20.9 0.00 0.79 0.79 86 1012.8
20260903143021 21 227 11.3 20.9 0.00 0.79 0.79 86 1012.8
20260903142852 21 121 14.5 20.9 0.00 0.79 0.79 86 1012.9
20260903142814 21 140 14.5 20.9 0.00 0.79 0.79 86 1013.0
20260903142638 21 225 11.3 20.9 0.00 0.79 0.79 86 1012.9
20260903142540 21 152 9.7 20.9 0.00 0.79 0.79 86 1013.0
20260903142443 21 215 9.7 20.9 0.00 0.79 0.79 86 1013.0
20260903142328 21 229 8.0 22.5 0.00 0.79 0.79 86 1012.9
20260903142230 21 250 8.0 22.5 0.00 0.79 0.79 86 1012.9